KC8P Weather Reports


Display with metric or nautical units.
time (UTC)temp
F
wind
direction
speed
MPH
gust
MPH
rain 1hr
in
rain 24hr
in
rain mn
in
humidity
%
barometer
mb
20260903153637 67 311 9.0 32.0 0.67 0.72 0.76 94 1017.7
20260903153530 68 343 9.0 32.0 0.59 0.64 0.69 94 1016.9
20260903153425 69 244 16.0 32.0 0.52 0.57 0.61 93 1016.9
20260903153319 70 237 0.0 21.0 0.41 0.46 0.54 93 1016.6
20260903153242 71 281 7.0 21.0 0.41 0.46 0.49 93 1016.6
20260903153214 72 341 12.0 21.0 0.28 0.33 0.45 92 1016.9
20260903153108 73 339 14.0 21.0 0.17 0.22 0.32 91 1016.9
20260903153002 76 283 12.0 21.0 0.04 0.09 0.21 89 1016.9
20260903152857 76 78 8.0 16.0 0.02 0.07 0.08 89 1017.3
20260903152750 77 261 4.0 6.0 0.02 0.07 0.06 89 1016.9
20260903152735 77 261 4.0 6.0 0.02 0.07 0.06 89 1016.6
20260903152646 77 233 3.0 4.0 0.00 0.05 0.06 89 1016.6
20260903152539 77 227 1.0 1.0 0.00 0.05 0.04 89 1015.9
20260903152434 77 225 0.0 1.0 0.00 0.05 0.04 88 1015.6
20260903152328 77 225 1.0 1.0 0.00 0.05 0.04 88 1015.6
20260903152222 77 211 0.0 1.0 0.00 0.05 0.04 88 1015.3
20260903152117 77 206 0.0 1.0 0.00 0.05 0.04 88 1015.3
20260903152011 78 206 0.0 1.0 0.00 0.05 0.04 88 1015.3
20260903151906 78 206 1.0 1.0 0.00 0.05 0.04 87 1014.9
20260903151759 78 205 1.0 1.0 0.00 0.05 0.04 87 1014.9
20260903151722 78 204 0.0 1.0 0.00 0.05 0.04 86 1014.9
20260903151653 78 195 0.0 1.0 0.00 0.05 0.04 86 1014.9
20260903151548 78 195 0.0 1.0 0.00 0.05 0.04 86 1014.9
20260903151442 78 195 0.0 1.0 0.00 0.05 0.04 86 1014.6
20260903151337 78 195 0.0 1.0 0.00 0.05 0.04 86 1014.9
20260903151230 78 195 0.0 1.0 0.00 0.05 0.04 86 1014.9
20260903151215 78 194 0.0 1.0 0.00 0.05 0.04 86 1014.9
20260903151125 78 196 0.0 1.0 0.00 0.05 0.04 86 1014.6
20260903151019 78 198 0.0 1.0 0.00 0.05 0.04 86 1014.9
20260903150914 78 185 0.0 1.0 0.00 0.05 0.04 86 1014.6
20260903150820 78 182 0.0 1.0 0.00 0.05 0.04 86 1014.2
20260903150708 78 213 0.0 1.0 0.00 0.05 0.04 86 1014.9
20260903150702 78 214 0.0 1.0 0.00 0.05 0.04 86 1014.9
20260903150609 78 214 0.0 1.0 0.00 0.05 0.04 86 1014.6
20260903150451 78 215 0.0 1.0 0.00 0.05 0.04 86 1014.6
20260903150345 78 214 0.0 2.0 0.00 0.05 0.04 86 1014.6
20260903150240 78 214 0.0 4.0 0.00 0.05 0.04 86 1014.9
20260903150202 78 214 0.0 4.0 0.00 0.05 0.04 85 1014.9
20260903150134 78 214 0.0 4.0 0.00 0.05 0.04 85 1014.2
20260903150029 78 214 0.0 4.0 0.00 0.05 0.04 85 1014.2
20260903145923 79 214 0.0 4.0 0.00 0.05 0.04 84 1014.2
20260903145817 79 195 0.0 4.0 0.00 0.05 0.04 84 1014.2
20260903145711 79 195 0.0 4.0 0.00 0.05 0.04 84 1014.2
20260903145655 79 195 0.0 4.0 0.00 0.05 0.04 84 1014.2
20260903145606 79 195 0.0 4.0 0.00 0.05 0.04 84 1014.2
20260903145459 79 188 1.0 4.0 0.00 0.05 0.04 84 1013.9
20260903145354 79 203 0.0 4.0 0.00 0.05 0.04 84 1014.2
20260903145248 79 199 2.0 3.0 0.00 0.05 0.04 84 1013.9
20260903145149 79 211 2.0 3.0 0.00 0.05 0.04 84 1013.9
20260903145142 79 183 2.0 3.0 0.00 0.05 0.04 84 1013.9
20260903145036 79 178 0.0 3.0 0.00 0.05 0.04 84 1013.9
20260903144931 80 188 2.0 3.0 0.00 0.05 0.04 82 1014.2
20260903144825 80 169 1.0 2.0 0.00 0.05 0.04 83 1014.2
20260903144719 80 173 2.0 2.0 0.00 0.05 0.04 82 1013.9
20260903144642 80 177 1.0 2.0 0.00 0.05 0.04 82 1013.9
20260903144614 80 171 1.0 2.0 0.00 0.05 0.04 82 1013.9
20260903144509 81 187 1.0 2.0 0.00 0.05 0.04 81 1013.9
20260903144418 81 133 0.0 2.0 0.00 0.05 0.04 80 1014.2
20260903144413 81 148 0.0 2.0 0.00 0.05 0.04 81 1013.9
20260903144404 81 135 0.0 2.0 0.00 0.05 0.04 80 1014.2
20260903144355 81 131 0.0 2.0 0.00 0.05 0.04 80 1014.2
20260903144046 81 134 0.0 2.0 0.00 0.05 0.04 80 1014.2
20260903143939 81 135 0.0 3.0 0.00 0.05 0.04 80 1013.9
20260903143901 82 140 0.0 3.0 0.00 0.05 0.04 77 1014.2
20260903143857 82 103 1.0 3.0 0.00 0.05 0.04 79 1014.2
20260903143848 82 138 0.0 3.0 0.00 0.05 0.04 78 1014.2
20260903143623 82 140 0.0 3.0 0.00 0.05 0.04 77 1014.2
20260903143517 82 126 0.0 3.0 0.00 0.05 0.04 77 1013.9
20260903143411 82 131 0.0 3.0 0.00 0.05 0.04 77 1013.9
20260903143306 82 121 0.0 3.0 0.00 0.05 0.04 77 1013.9
20260903143159 82 112 0.0 3.0 0.00 0.05 0.04 77 1013.9
20260903143121 82 249 0.0 3.0 0.00 0.05 0.04 77 1014.2
20260903143053 82 232 1.0 3.0 0.00 0.05 0.04 77 1014.2
20260903142947 82 288 1.0 3.0 0.00 0.05 0.04 77 1014.2
20260903142852 82 211 2.0 3.0 0.00 0.05 0.04 76 1014.2
20260903142843 83 145 1.0 3.0 0.00 0.05 0.04 76 1014.2
20260903142834 83 189 3.0 3.0 0.00 0.05 0.04 76 1014.2
20260903142524 83 227 2.0 3.0 0.00 0.05 0.04 76 1014.6
20260903142419 83 153 1.0 2.0 0.00 0.05 0.04 75 1014.2
20260903142339 83 225 1.0 2.0 0.00 0.05 0.04 76 1014.2
20260903142335 83 207 2.0 2.0 0.00 0.05 0.04 76 1014.2
20260903142327 83 231 1.0 2.0 0.00 0.05 0.04 76 1014.6
20260903142103 83 225 1.0 2.0 0.00 0.05 0.04 76 1014.2
20260903141956 83 165 0.0 2.0 0.00 0.05 0.04 75 1014.2
20260903141851 83 218 1.0 2.0 0.00 0.05 0.04 75 1014.2
20260903141745 84 255 2.0 2.0 0.00 0.05 0.04 75 1013.9
20260903141638 84 122 0.0 2.0 0.00 0.05 0.04 76 1013.9
20260903141602 84 135 0.0 2.0 0.00 0.05 0.04 76 1013.9
20260903141533 84 130 0.0 2.0 0.00 0.05 0.04 76 1014.2
20260903141428 84 206 1.0 2.0 0.00 0.05 0.04 74 1014.2
20260903141334 82 140 0.0 1.0 0.00 0.05 0.04 76 1013.9
20260903141330 84 204 0.0 1.0 0.00 0.05 0.04 76 1014.2
20260903141321 83 133 0.0 1.0 0.00 0.05 0.04 76 1014.2
20260903141312 83 148 0.0 1.0 0.00 0.05 0.04 76 1013.9
20260903141005 82 141 0.0 1.0 0.00 0.05 0.04 77 1014.2
20260903140859 82 182 0.0 1.0 0.00 0.05 0.04 77 1014.2
20260903140818 82 266 0.0 1.0 0.00 0.05 0.04 77 1014.2
20260903140814 82 158 0.0 1.0 0.00 0.05 0.04 77 1013.9
20260903140806 82 322 0.0 1.0 0.00 0.05 0.04 77 1013.9
20260903140542 82 255 0.0 1.0 0.00 0.05 0.04 77 1013.9
20260903140435 82 195 0.0 2.0 0.00 0.05 0.04 77 1013.9
20260903140330 82 191 0.0 2.0 0.00 0.05 0.04 77 1013.9
20260903140223 82 140 0.0 2.0 0.00 0.05 0.04 77 1013.9
20260903140117 82 130 0.0 2.0 0.00 0.05 0.04 77 1013.5
20260903140040 81 148 0.0 2.0 0.00 0.05 0.04 77 1013.5
20260903140012 81 166 0.0 2.0 0.00 0.05 0.04 77 1013.9
20260903135905 81 184 0.0 2.0 0.00 0.05 0.04 78 1013.5
20260903135800 81 176 0.0 2.0 0.00 0.05 0.04 78 1013.9
20260903135655 81 214 0.0 2.0 0.00 0.05 0.04 78 1013.5
20260903135533 81 184 1.0 2.0 0.00 0.05 0.04 78 1013.9
20260903135443 82 182 1.0 2.0 0.00 0.05 0.04 78 1013.9
20260903135337 82 134 0.0 2.0 0.00 0.05 0.04 79 1013.9
20260903135232 81 142 0.0 2.0 0.00 0.05 0.04 80 1013.9
20260903135127 81 136 0.0 2.0 0.00 0.05 0.04 79 1013.9
20260903135020 81 127 0.0 2.0 0.00 0.05 0.04 80 1013.9
20260903134914 81 158 0.0 2.0 0.00 0.05 0.04 80 1014.2
20260903134809 81 163 1.0 2.0 0.00 0.05 0.04 79 1014.2
20260903134703 81 178 0.0 2.0 0.00 0.05 0.04 79 1013.9
20260903134557 81 124 0.0 3.0 0.00 0.05 0.04 79 1014.2
20260903134520 81 137 0.0 3.0 0.00 0.05 0.04 80 1013.9
20260903134451 81 124 0.0 3.0 0.00 0.05 0.04 81 1013.9
20260903134346 80 127 0.0 3.0 0.00 0.05 0.04 81 1014.2
20260903134241 80 116 0.0 3.0 0.00 0.05 0.04 81 1014.2
20260903134134 80 101 0.0 3.0 0.00 0.05 0.04 83 1014.2
20260903134029 79 138 0.0 3.0 0.00 0.05 0.04 83 1014.2
20260903134013 79 135 0.0 3.0 0.00 0.05 0.04 83 1014.2
20260903133924 79 133 0.0 3.0 0.00 0.05 0.04 83 1014.2
20260903133818 79 187 1.0 3.0 0.00 0.05 0.04 83 1014.2
20260903133712 79 174 2.0 3.0 0.00 0.05 0.04 83 1014.2
20260903133606 79 148 1.0 2.0 0.00 0.05 0.04 82 1014.2
20260903133507 80 223 2.0 2.0 0.00 0.05 0.04 82 1014.2
20260903133500 80 205 1.0 2.0 0.00 0.05 0.04 81 1014.2
20260903133355 79 181 1.0 2.0 0.00 0.05 0.04 81 1014.2
20260903133249 79 169 0.0 2.0 0.00 0.05 0.04 82 1014.2
20260903133142 79 184 0.0 2.0 0.00 0.05 0.04 83 1014.2
20260903133037 78 202 1.0 2.0 0.00 0.05 0.04 83 1014.2
20260903133000 78 200 0.0 1.0 0.00 0.05 0.04 84 1014.2
20260903132932 78 193 0.0 1.0 0.00 0.05 0.04 83 1014.2
20260903132826 78 240 0.0 2.0 0.00 0.05 0.04 83 1014.2
20260903132720 78 50 0.0 2.0 0.00 0.05 0.04 83 1014.2
20260903132615 78 128 0.0 2.0 0.00 0.05 0.04 83 1014.2
20260903132508 78 218 0.0 2.0 0.00 0.05 0.04 84 1014.6
20260903132454 78 218 0.0 2.0 0.00 0.05 0.04 84 1014.6
20260903132403 78 144 0.0 2.0 0.00 0.05 0.04 83 1014.2
20260903132257 78 220 0.0 2.0 0.00 0.05 0.04 84 1014.2
20260903132152 78 127 0.0 2.0 0.00 0.05 0.04 84 1014.2
20260903132046 77 162 0.0 2.0 0.00 0.05 0.04 85 1014.2
20260903131954 77 164 1.0 2.0 0.00 0.05 0.04 84 1014.2
20260903131834 77 207 0.0 2.0 0.00 0.05 0.04 84 1014.2
20260903131729 77 243 0.0 2.0 0.00 0.05 0.04 84 1014.2
20260903131623 77 189 0.0 2.0 0.00 0.05 0.04 85 1014.2
20260903131516 77 197 0.0 2.0 0.00 0.05 0.04 86 1014.2
20260903131410 77 228 0.0 2.0 0.00 0.05 0.04 86 1014.2
20260903131305 77 306 1.0 2.0 0.00 0.05 0.04 85 1014.2
20260903131212 76 209 0.0 1.0 0.00 0.05 0.04 85 1013.9
20260903131208 77 214 0.0 2.0 0.00 0.05 0.04 85 1014.2
20260903131200 77 223 2.0 2.0 0.00 0.05 0.04 85 1014.2
20260903131151 76 209 0.0 1.0 0.00 0.05 0.04 85 1014.2
20260903130842 76 186 0.0 1.0 0.00 0.05 0.04 86 1013.9
20260903130737 76 203 0.0 0.0 0.00 0.05 0.04 85 1013.9
20260903130631 76 232 0.0 0.0 0.00 0.05 0.04 85 1013.9
20260903130538 76 183 0.0 0.0 0.00 0.05 0.04 85 1014.2
20260903130426 76 159 0.0 0.0 0.00 0.05 0.04 87 1014.2
20260903130420 76 159 0.0 0.0 0.00 0.05 0.04 86 1014.2
20260903130314 76 165 0.0 0.0 0.00 0.05 0.04 87 1014.2
20260903130207 76 171 0.0 0.0 0.00 0.05 0.04 87 1014.2
20260903130115 75 157 0.0 0.0 0.00 0.05 0.04 87 1014.2
20260903125957 75 130 0.0 0.0 0.00 0.05 0.04 87 1014.2
20260903125918 75 128 0.0 0.0 0.00 0.05 0.04 87 1014.2
20260903125851 74 201 0.0 0.0 0.00 0.05 0.04 87 1014.2
20260903125744 74 61 0.0 0.0 0.00 0.05 0.04 89 1014.2
20260903125647 74 222 0.0 0.0 0.00 0.05 0.04 89 1014.2
20260903125638 74 180 0.0 0.0 0.00 0.05 0.04 90 1014.2
20260903125630 73 245 0.0 0.0 0.00 0.05 0.04 90 1014.2
20260903125322 73 201 0.0 0.0 0.00 0.05 0.04 91 1014.6
20260903125215 73 214 0.0 0.0 0.00 0.05 0.04 92 1014.6
20260903125110 73 182 0.0 0.0 0.00 0.05 0.04 92 1014.2
20260903125005 73 163 0.0 0.0 0.00 0.05 0.04 93 1014.6
20260903124905 72 185 0.0 0.0 0.00 0.05 0.04 93 1014.6
20260903124859 72 185 0.0 0.0 0.00 0.05 0.04 93 1014.6
20260903124751 72 205 0.0 0.0 0.00 0.05 0.04 93 1014.6
20260903124646 72 193 0.0 0.0 0.00 0.05 0.04 94 1014.2
20260903124541 72 185 0.0 0.0 0.00 0.05 0.04 94 1014.2
20260903124434 72 183 0.0 0.0 0.00 0.05 0.04 95 1014.2
20260903124357 72 183 0.0 0.0 0.00 0.05 0.04 95 1014.2
20260903124328 72 183 0.0 0.0 0.00 0.05 0.04 95 1014.2
20260903124223 72 184 0.0 0.0 0.00 0.05 0.04 96 1014.2
20260903124117 72 186 0.0 0.0 0.00 0.05 0.04 96 1014.2
20260903124011 71 186 0.0 0.0 0.00 0.05 0.04 96 1014.6
20260903123905 71 206 0.0 0.0 0.00 0.05 0.04 96 1014.9
20260903123850 71 216 0.0 0.0 0.00 0.05 0.04 96 1014.9
20260903123800 71 152 0.0 0.0 0.00 0.05 0.04 96 1014.9
20260903123654 71 138 0.0 0.0 0.00 0.05 0.04 96 1014.2
20260903123549 71 149 0.0 0.0 0.00 0.05 0.04 96 1014.6
20260903123443 71 193 0.0 0.0 0.00 0.05 0.04 96 1014.6
20260903123344 71 136 0.0 0.0 0.00 0.05 0.04 96 1014.6
20260903123338 71 137 0.0 0.0 0.00 0.05 0.04 96 1014.6
20260903123232 71 110 0.0 0.0 0.00 0.05 0.04 97 1014.6
20260903123125 71 92 0.0 0.0 0.00 0.05 0.04 96 1014.6
20260903123019 71 253 0.0 0.0 0.00 0.05 0.04 96 1014.6
20260903122914 71 168 0.0 0.0 0.00 0.05 0.04 97 1014.6
20260903122836 71 169 0.0 0.0 0.00 0.05 0.04 97 1014.6
20260903122808 71 172 0.0 0.0 0.00 0.05 0.04 97 1014.6
20260903122703 71 172 0.0 0.0 0.00 0.05 0.04 97 1014.6
20260903122557 71 184 0.0 0.0 0.00 0.05 0.04 97 1014.6
20260903122452 70 160 0.0 0.0 0.00 0.05 0.04 97 1014.6
20260903122346 70 175 0.0 0.0 0.00 0.05 0.04 97 1014.6
20260903122330 70 175 0.0 0.0 0.00 0.05 0.04 97 1014.6
20260903122240 70 175 0.0 0.0 0.00 0.05 0.04 97 1014.6
20260903122147 70 175 0.0 0.0 0.00 0.05 0.04 97 1014.6
20260903122028 70 175 0.0 0.0 0.00 0.05 0.04 97 1014.2
20260903121923 70 191 0.0 0.0 0.00 0.05 0.04 97 1014.6
20260903121817 70 195 0.0 0.0 0.00 0.05 0.04 97 1014.6
20260903121707 70 186 0.0 0.0 0.00 0.05 0.04 97 1014.6
20260903121602 70 120 0.0 0.0 0.00 0.05 0.04 97 1014.6
20260903121456 70 212 0.0 0.0 0.00 0.05 0.04 97 1014.2
20260903121350 70 213 0.0 0.0 0.00 0.05 0.04 97 1014.2
20260903121325 70 213 0.0 0.0 0.00 0.05 0.04 97 1014.9
20260903121245 70 213 0.0 0.0 0.00 0.05 0.04 97 1014.9
20260903121139 70 178 0.0 0.0 0.00 0.05 0.04 97 1014.6
20260903121034 70 177 0.0 0.0 0.00 0.05 0.04 97 1014.6
20260903120929 70 205 0.0 0.0 0.00 0.05 0.04 97 1014.6
20260903120822 70 188 0.0 0.0 0.00 0.05 0.04 97 1014.6
20260903120716 70 198 0.0 0.0 0.00 0.05 0.04 97 1014.6
20260903120610 70 182 0.0 0.0 0.00 0.05 0.04 97 1014.9
20260903120504 70 187 0.0 0.0 0.00 0.05 0.04 97 1014.6
20260903120359 70 216 0.0 0.0 0.00 0.05 0.04 97 1014.6
20260903120311 70 259 0.0 0.0 0.00 0.05 0.04 97 1014.6
20260903120253 70 203 0.0 0.0 0.00 0.05 0.04 97 1014.6
20260903120154 69 195 0.0 0.0 0.00 0.05 0.04 97 1014.6
20260903120112 69 181 0.0 0.0 0.00 0.05 0.04 97 1014.6
20260903120108 69 197 0.0 0.0 0.00 0.05 0.04 97 1014.6
20260903120052 69 184 0.0 0.0 0.00 0.05 0.04 97 1014.9
20260903120031 69 212 0.0 0.0 0.00 0.05 0.04 97 1014.6
20260903115731 69 201 0.0 0.0 0.00 0.05 0.04 97 1014.6
20260903115626 69 201 0.0 0.0 0.00 0.05 0.04 97 1014.6
20260903115541 69 210 0.0 0.0 0.00 0.05 0.04 97 1014.6
20260903115533 69 209 0.0 0.0 0.00 0.05 0.04 97 1014.2
20260903115523 69 184 0.0 0.0 0.00 0.05 0.04 97 1014.6
20260903115202 69 184 0.0 0.0 0.00 0.05 0.04 97 1014.6
20260903115109 69 209 0.0 0.0 0.00 0.05 0.04 97 1014.6
20260903114951 69 201 0.0 0.0 0.00 0.05 0.04 97 1014.6
20260903114845 69 210 0.0 0.0 0.00 0.05 0.04 97 1014.6
20260903114758 69 208 0.0 0.0 0.00 0.05 0.04 97 1014.6
20260903114740 69 196 0.0 0.0 0.00 0.05 0.04 97 1014.6
20260903114634 69 193 0.0 0.0 0.00 0.05 0.04 97 1014.2
20260903114529 69 216 0.0 0.0 0.00 0.05 0.04 97 1014.6
20260903114423 69 201 0.0 0.0 0.00 0.05 0.04 97 1014.6
20260903114318 69 204 0.0 0.0 0.00 0.05 0.04 97 1014.2
20260903114250 69 210 0.0 0.0 0.00 0.05 0.04 97 1014.2
20260903114211 69 197 0.0 0.0 0.00 0.05 0.04 97 1014.6
20260903114118 69 201 0.0 0.0 0.00 0.05 0.04 97 1014.2
20260903113959 69 204 0.0 0.0 0.00 0.05 0.04 97 1014.2
20260903113854 69 210 0.0 0.0 0.00 0.05 0.04 97 1014.2
20260903113748 69 206 0.0 0.0 0.00 0.05 0.04 97 1014.2
20260903113643 69 193 0.0 0.0 0.00 0.05 0.04 97 1014.6
20260903113537 69 205 0.0 0.0 0.00 0.05 0.04 97 1014.6
20260903113444 69 210 0.0 0.0 0.00 0.05 0.04 97 1014.6
20260903113325 69 196 0.0 0.0 0.00 0.05 0.04 97 1014.6
20260903113237 69 212 0.0 0.0 0.00 0.05 0.04 97 1014.6
20260903113219 69 211 0.0 0.0 0.00 0.05 0.04 97 1014.6
20260903113113 69 197 0.0 0.0 0.00 0.05 0.04 97 1014.6
20260903113009 69 202 0.0 0.0 0.00 0.05 0.04 97 1014.6
20260903113000 69 204 0.0 0.0 0.00 0.05 0.04 97 1014.6
20260903112956 69 185 0.0 0.0 0.00 0.05 0.04 97 1014.6
20260903112948 69 201 0.0 0.0 0.00 0.05 0.04 97 1014.6
20260903112650 69 204 0.0 0.0 0.00 0.05 0.04 97 1014.6
20260903112545 69 210 0.0 0.0 0.00 0.05 0.04 97 1014.2
20260903112459 69 211 0.0 0.0 0.00 0.05 0.04 97 1014.6
20260903112450 69 214 0.0 0.0 0.00 0.05 0.04 97 1014.6
20260903112440 69 201 0.0 0.0 0.00 0.05 0.04 97 1014.6
20260903112134 69 201 0.0 0.0 0.00 0.05 0.04 97 1014.6
20260903112016 69 201 0.0 0.0 0.00 0.05 0.04 97 1014.6
20260903111910 69 201 0.0 0.0 0.00 0.05 0.04 97 1014.2
20260903111805 69 201 0.0 0.0 0.00 0.05 0.04 97 1014.6
20260903111717 69 201 0.0 0.0 0.00 0.05 0.04 97 1014.6
20260903111659 69 190 0.0 0.0 0.00 0.05 0.04 97 1014.6
20260903111553 69 201 0.0 0.0 0.00 0.05 0.04 97 1014.2
20260903111448 69 201 0.0 0.0 0.00 0.05 0.04 97 1014.2
20260903111440 69 201 0.0 0.0 0.00 0.05 0.04 97 1014.2
20260903111431 69 201 0.0 0.0 0.00 0.05 0.04 97 1014.6
20260903111131 69 200 0.0 0.0 0.00 0.05 0.04 97 1014.6
20260903111024 69 201 0.0 0.0 0.00 0.05 0.04 97 1014.2
20260903110919 69 200 0.0 0.0 0.00 0.05 0.04 97 1014.6
20260903110813 69 193 0.0 0.0 0.00 0.05 0.04 97 1014.2
20260903110708 69 185 0.0 0.0 0.00 0.05 0.04 97 1014.6
20260903110602 69 195 0.0 0.0 0.00 0.05 0.04 97 1014.2
20260903110456 69 203 0.0 0.0 0.00 0.05 0.04 97 1014.2
20260903110351 69 191 0.0 0.0 0.00 0.05 0.04 97 1014.2
20260903110244 69 201 0.0 0.0 0.00 0.05 0.04 97 1014.2
20260903110156 69 205 0.0 0.0 0.00 0.05 0.04 97 1014.2
20260903110139 69 205 0.0 0.0 0.00 0.05 0.04 97 1014.2
20260903110033 69 196 0.0 0.0 0.00 0.05 0.04 97 1014.2
20260903105928 69 195 0.0 0.0 0.00 0.05 0.04 97 1014.2
20260903105822 69 191 0.0 0.0 0.00 0.05 0.04 97 1014.2
20260903105716 69 195 0.0 0.0 0.00 0.05 0.04 97 1014.2
20260903105650 69 195 0.0 0.0 0.00 0.05 0.04 97 1014.2
20260903105611 69 195 0.0 0.0 0.00 0.05 0.04 97 1014.2
20260903105505 69 195 0.0 0.0 0.00 0.05 0.04 97 1014.2
20260903105420 69 196 0.0 0.0 0.00 0.05 0.04 97 1014.2
20260903105412 69 195 0.0 0.0 0.00 0.05 0.04 97 1014.2
20260903105401 69 196 0.0 0.0 0.00 0.05 0.04 97 1014.2
20260903105042 69 196 0.0 0.0 0.00 0.05 0.04 97 1014.2
20260903104937 69 200 0.0 0.0 0.00 0.05 0.04 97 1014.2
20260903104908 69 193 0.0 0.0 0.00 0.05 0.04 97 1014.2
20260903104904 69 201 0.0 0.0 0.00 0.05 0.04 97 1014.2
20260903104855 69 193 0.0 0.0 0.00 0.05 0.04 97 1013.9
20260903104620 69 193 0.0 0.0 0.00 0.05 0.04 97 1014.2
20260903104513 69 214 0.0 0.0 0.00 0.05 0.04 97 1014.2
20260903104408 69 203 0.0 0.0 0.00 0.05 0.04 97 1013.9
20260903104303 69 204 0.0 0.0 0.00 0.05 0.04 97 1013.9
20260903104157 69 204 0.0 0.0 0.00 0.05 0.04 97 1013.9
20260903104130 69 203 0.0 0.0 0.00 0.05 0.04 97 1013.9
20260903104051 69 222 0.0 0.0 0.00 0.05 0.04 97 1013.9
20260903103947 69 226 0.0 0.0 0.00 0.05 0.04 97 1013.9
20260903103903 69 226 0.0 0.0 0.00 0.05 0.04 97 1013.9
20260903103855 69 217 0.0 0.0 0.00 0.05 0.04 97 1013.9
20260903103845 69 216 0.0 0.0 0.00 0.05 0.04 97 1013.9
20260903103524 69 222 0.0 0.0 0.00 0.05 0.04 97 1013.9
20260903103419 69 230 0.0 0.0 0.00 0.05 0.04 97 1013.9
20260903103313 69 196 0.0 0.0 0.00 0.05 0.04 97 1013.9
20260903103206 69 201 0.0 0.0 0.00 0.05 0.04 97 1014.2
20260903103118 69 201 0.0 0.0 0.00 0.05 0.04 97 1013.9
20260903103100 69 201 0.0 0.0 0.00 0.05 0.04 97 1013.9
20260903102954 69 201 0.0 0.0 0.00 0.05 0.04 97 1013.9
20260903102849 69 201 0.0 0.0 0.00 0.05 0.04 97 1013.9
20260903102840 69 201 0.0 0.0 0.00 0.05 0.04 97 1013.5
20260903102832 69 201 0.0 0.0 0.00 0.05 0.04 97 1013.9
20260903102532 69 216 0.0 0.0 0.00 0.05 0.04 97 1014.2
20260903102426 70 188 0.0 0.0 0.00 0.05 0.04 97 1013.9
20260903102359 70 197 0.0 0.0 0.00 0.05 0.04 97 1013.9
20260903102355 70 205 0.0 0.0 0.00 0.05 0.04 97 1013.9
20260903102347 70 206 0.0 0.0 0.00 0.05 0.04 97 1013.9
20260903102323 70 197 0.0 0.0 0.00 0.05 0.04 97 1013.9
20260903102003 70 204 0.0 0.0 0.00 0.05 0.04 97 1014.2
20260903101858 70 196 0.0 0.0 0.00 0.05 0.04 97 1014.2
20260903101752 70 196 0.0 0.0 0.00 0.05 0.04 97 1013.9
20260903101647 70 197 0.0 2.0 0.00 0.05 0.04 97 1014.2
20260903101541 70 203 0.0 2.0 0.00 0.05 0.04 97 1013.9
20260903101435 70 203 0.0 2.0 0.00 0.05 0.04 97 1013.9
20260903101344 70 196 0.0 2.0 0.00 0.05 0.04 97 1013.9
20260903101340 70 196 0.0 2.0 0.00 0.05 0.04 97 1013.9
20260903101331 70 196 0.0 2.0 0.00 0.05 0.04 97 1013.9
20260903101322 70 193 0.0 2.0 0.00 0.05 0.04 97 1013.9
20260903101012 70 191 0.0 2.0 0.00 0.05 0.04 97 1013.9
20260903100906 70 201 0.0 2.0 0.00 0.05 0.04 97 1014.2
20260903100821 70 206 1.0 2.0 0.00 0.05 0.04 97 1013.9
20260903100812 70 209 0.0 2.0 0.00 0.05 0.04 97 1014.2
20260903100802 70 217 1.0 2.0 0.00 0.05 0.04 97 1013.9
20260903100443 70 211 2.0 2.0 0.00 0.05 0.04 97 1014.2
20260903100337 70 219 2.0 2.0 0.00 0.05 0.04 97 1013.9
20260903100308 70 196 0.0 1.0 0.00 0.05 0.04 97 1014.2
20260903100304 70 207 1.0 2.0 0.00 0.05 0.04 97 1013.9
20260903100255 70 196 1.0 1.0 0.00 0.05 0.04 97 1014.2
20260903100020 70 195 1.0 1.0 0.00 0.05 0.04 97 1014.2
20260903095915 70 195 1.0 1.0 0.00 0.05 0.04 97 1013.9
20260903095809 70 193 0.0 1.0 0.00 0.05 0.04 97 1013.9
20260903095704 70 194 1.0 1.0 0.00 0.05 0.04 97 1013.9
20260903095558 70 203 0.0 0.0 0.00 0.05 0.04 97 1013.9
20260903095531 70 204 0.0 0.0 0.00 0.05 0.04 96 1013.9
20260903095451 70 204 0.0 0.0 0.00 0.05 0.04 96 1013.9
20260903095347 70 204 0.0 0.0 0.00 0.05 0.04 96 1014.2
20260903095241 70 203 0.0 0.0 0.00 0.05 0.04 96 1013.9
20260903095134 70 203 0.0 0.0 0.00 0.05 0.04 96 1013.9
20260903095028 70 203 0.0 0.0 0.00 0.05 0.04 96 1013.9
20260903094922 70 203 0.0 0.0 0.00 0.05 0.04 96 1013.5
20260903094817 70 203 0.0 0.0 0.00 0.05 0.04 96 1013.9
20260903094710 70 203 0.0 0.0 0.00 0.05 0.04 96 1013.9
20260903094605 70 203 0.0 0.0 0.00 0.05 0.04 96 1013.9
20260903094517 70 203 0.0 0.0 0.00 0.05 0.04 96 1013.9
20260903094500 70 203 0.0 0.0 0.00 0.05 0.04 96 1013.9
20260903094354 70 204 0.0 0.0 0.00 0.05 0.04 96 1013.9
20260903094249 70 204 0.0 0.0 0.00 0.05 0.04 96 1013.9
20260903094143 70 204 0.0 0.0 0.00 0.05 0.04 96 1013.9
20260903094010 70 204 0.0 0.0 0.00 0.05 0.04 96 1013.5
20260903093931 70 203 0.0 0.0 0.00 0.05 0.04 96 1013.5
20260903093825 70 204 0.0 0.0 0.00 0.05 0.04 96 1013.9
20260903093720 70 204 0.0 0.0 0.00 0.05 0.04 96 1013.5
20260903093614 70 204 0.0 0.0 0.00 0.05 0.04 96 1013.5
20260903093508 70 204 0.0 0.0 0.00 0.05 0.04 96 1013.5
20260903093402 70 204 0.0 0.0 0.00 0.05 0.04 96 1013.5
20260903093256 70 204 0.0 0.0 0.00 0.05 0.04 96 1013.9
20260903093149 70 204 0.0 0.0 0.00 0.05 0.04 96 1013.5
20260903093044 70 205 0.0 0.0 0.00 0.05 0.04 96 1013.5
20260903092955 70 204 0.0 0.0 0.00 0.05 0.04 96 1013.5
20260903092938 70 203 0.0 0.0 0.00 0.05 0.04 96 1013.5
20260903092832 70 203 0.0 0.0 0.00 0.05 0.04 96 1013.5
20260903092726 70 203 0.0 0.0 0.00 0.05 0.04 96 1013.5
20260903092621 70 203 0.0 0.0 0.00 0.05 0.04 96 1013.5
20260903092516 70 203 0.0 0.0 0.00 0.05 0.04 96 1013.5
20260903092449 70 203 0.0 0.0 0.00 0.05 0.04 96 1013.5
20260903092410 70 203 0.0 0.0 0.00 0.05 0.04 96 1013.5
20260903092306 70 203 0.0 1.0 0.00 0.05 0.04 96 1013.5
20260903092158 70 204 0.0 1.0 0.00 0.05 0.04 96 1013.5
20260903092052 70 204 0.0 1.0 0.00 0.05 0.04 96 1013.5
20260903091946 70 208 0.0 1.0 0.00 0.05 0.04 96 1013.5
20260903091840 70 201 0.0 1.0 0.00 0.05 0.04 96 1013.5
20260903091735 70 201 0.0 1.0 0.00 0.05 0.04 96 1013.5
20260903091629 70 200 0.0 1.0 0.00 0.05 0.04 96 1013.5
20260903091524 70 200 0.0 1.0 0.00 0.05 0.04 96 1013.5
20260903091435 70 203 0.0 1.0 0.00 0.05 0.04 96 1013.5
20260903091417 70 207 0.0 1.0 0.00 0.05 0.04 96 1013.5
20260903091312 70 203 0.0 1.0 0.00 0.05 0.04 96 1013.5
20260903091207 70 204 0.0 0.0 0.00 0.05 0.04 96 1013.5
20260903091113 70 204 0.0 0.0 0.00 0.05 0.04 96 1013.5
20260903090955 70 204 0.0 0.0 0.00 0.05 0.04 96 1013.5
20260903090929 70 207 0.0 0.0 0.00 0.05 0.04 96 1013.1
20260903090902 70 208 0.0 0.0 0.00 0.05 0.04 95 1013.1
20260903090744 70 208 0.0 0.0 0.00 0.05 0.04 95 1013.1
20260903090638 70 207 0.0 0.0 0.00 0.05 0.04 95 1013.5
20260903090532 70 207 0.0 0.0 0.00 0.05 0.04 95 1013.5
20260903090439 70 207 0.0 0.0 0.00 0.05 0.04 95 1013.1
20260903090321 70 176 0.0 0.0 0.00 0.05 0.04 95 1013.1
20260903090215 70 187 0.0 0.0 0.00 0.05 0.04 95 1013.5
20260903090109 70 187 0.0 0.0 0.00 0.05 0.04 95 1013.5
20260903090004 70 187 0.0 0.0 0.00 0.05 0.04 95 1013.1
20260903085915 71 187 0.0 0.0 0.00 0.05 0.04 95 1013.1
20260903085857 71 187 0.0 0.0 0.00 0.05 0.04 95 1013.1
20260903085752 71 184 0.0 0.0 0.00 0.05 0.04 95 1013.1
20260903085659 71 226 0.0 0.0 0.00 0.05 0.04 95 1013.5
20260903085540 71 226 0.0 1.0 0.00 0.05 0.04 95 1013.1
20260903085408 71 236 0.0 1.0 0.00 0.05 0.04 95 1013.1
20260903085328 71 236 0.0 1.0 0.00 0.05 0.04 95 1013.1
20260903085224 71 216 0.0 1.0 0.00 0.05 0.04 95 1013.5
20260903085117 71 32 0.0 1.0 0.00 0.05 0.04 95 1013.5
20260903085012 71 32 0.0 1.0 0.00 0.05 0.04 95 1013.1
20260903084918 71 32 0.0 1.0 0.00 0.05 0.04 95 1013.1
20260903084800 71 32 0.0 1.0 0.00 0.05 0.04 95 1013.1
20260903084652 71 39 0.0 1.0 0.00 0.05 0.04 95 1013.5
20260903084547 71 24 0.0 1.0 0.00 0.05 0.04 95 1013.5
20260903084442 71 246 0.0 1.0 0.00 0.05 0.04 95 1013.1
20260903084353 71 283 0.0 1.0 0.00 0.05 0.04 95 1013.1
20260903084336 71 294 1.0 1.0 0.00 0.05 0.04 95 1013.5
20260903084231 71 263 0.0 1.0 0.00 0.05 0.04 95 1013.5
20260903084124 71 263 0.0 1.0 0.00 0.05 0.04 95 1013.5
20260903084019 71 264 0.0 1.0 0.00 0.05 0.04 95 1013.5
20260903083912 71 277 0.0 1.0 0.00 0.05 0.04 95 1013.1
20260903083846 71 269 0.0 1.0 0.00 0.05 0.04 95 1013.1
20260903083807 71 262 0.0 1.0 0.00 0.05 0.04 95 1013.1
20260903083701 71 289 0.0 1.0 0.00 0.05 0.04 95 1013.5
20260903083556 71 247 0.0 1.0 0.00 0.05 0.04 95 1013.5
20260903083450 71 281 0.0 1.0 0.00 0.05 0.04 95 1013.1
20260903083344 71 214 0.0 1.0 0.00 0.05 0.04 95 1013.5
20260903083239 71 168 0.0 1.0 0.00 0.05 0.04 94 1013.1
20260903083133 71 253 0.0 1.0 0.00 0.05 0.04 94 1013.1
20260903083027 71 255 0.0 1.0 0.00 0.05 0.04 94 1013.1
20260903082922 71 254 0.0 1.0 0.00 0.05 0.04 94 1013.1
20260903082833 71 255 0.0 1.0 0.00 0.05 0.04 94 1012.8
20260903082815 71 254 0.0 1.0 0.00 0.05 0.04 94 1012.8
20260903082710 71 119 0.0 1.0 0.00 0.05 0.04 94 1013.1
20260903082604 71 133 0.0 1.0 0.00 0.05 0.04 94 1013.5
20260903082458 71 162 0.0 2.0 0.00 0.05 0.04 94 1013.5
20260903082326 71 173 0.0 2.0 0.00 0.05 0.04 94 1013.1
20260903082247 71 173 0.0 2.0 0.00 0.05 0.04 94 1013.1
20260903082154 71 171 0.0 2.0 0.00 0.05 0.04 94 1012.8
20260903082036 71 212 0.0 2.0 0.00 0.05 0.04 94 1013.1
20260903081930 71 189 0.0 2.0 0.00 0.05 0.04 94 1013.1
20260903081824 71 171 0.0 2.0 0.00 0.05 0.04 94 1012.8
20260903081716 71 187 0.0 2.0 0.00 0.05 0.04 94 1013.1
20260903081612 71 302 0.0 2.0 0.00 0.05 0.04 94 1013.1
20260903081505 71 338 1.0 2.0 0.00 0.05 0.04 94 1013.1
20260903081359 72 200 0.0 2.0 0.00 0.05 0.04 94 1012.8
20260903081310 72 92 1.0 2.0 0.00 0.05 0.04 94 1013.1
20260903081252 72 319 0.0 2.0 0.00 0.05 0.04 94 1013.1
20260903081147 72 138 1.0 2.0 0.00 0.05 0.04 93 1012.8
20260903081042 72 50 1.0 2.0 0.00 0.05 0.04 93 1012.8
20260903080936 72 305 0.0 2.0 0.00 0.05 0.04 93 1013.1
20260903080831 72 260 0.0 3.0 0.00 0.05 0.04 93 1013.1
20260903080804 72 288 2.0 3.0 0.00 0.05 0.04 93 1013.1
20260903080725 72 211 0.0 3.0 0.00 0.05 0.04 93 1013.1
20260903080619 72 223 0.0 3.0 0.00 0.05 0.04 93 1013.1
20260903080513 72 121 0.0 4.0 0.00 0.05 0.04 93 1012.8
20260903080407 72 189 0.0 6.0 0.00 0.05 0.04 93 1013.1
20260903080301 72 239 1.0 6.0 0.00 0.05 0.04 93 1013.1
20260903080156 72 314 1.0 6.0 0.02 0.05 0.04 93 1013.1
20260903080103 72 296 0.0 6.0 0.02 0.05 0.04 93 1012.8
20260903075944 72 288 2.0 6.0 0.02 0.05 0.04 93 1012.8
20260903075839 72 246 1.0 6.0 0.02 0.05 0.04 93 1013.1
20260903075750 72 333 1.0 6.0 0.02 0.05 0.04 94 1013.1
20260903075733 71 212 1.0 6.0 0.02 0.05 0.04 94 1013.1
20260903075627 71 307 1.0 6.0 0.02 0.05 0.04 94 1012.8
20260903075522 71 160 0.0 6.0 0.02 0.05 0.04 94 1013.1
20260903075415 71 211 2.0 7.0 0.02 0.05 0.04 94 1013.1
20260903075311 71 242 3.0 7.0 0.02 0.05 0.04 94 1013.1
20260903075243 71 275 2.0 7.0 0.02 0.05 0.04 94 1013.1
20260903075204 71 312 1.0 7.0 0.02 0.05 0.04 94 1013.1
20260903075059 71 231 1.0 7.0 0.02 0.05 0.04 94 1013.1
20260903074953 71 349 3.0 7.0 0.02 0.05 0.04 94 1013.1
20260903074847 71 231 1.0 7.0 0.02 0.05 0.04 94 1013.1
20260903074740 71 200 1.0 7.0 0.02 0.05 0.04 95 1013.5
20260903074635 71 18 2.0 7.0 0.02 0.05 0.04 95 1013.1
20260903074529 71 326 1.0 7.0 0.02 0.05 0.04 95 1013.5
20260903074423 71 248 2.0 6.0 0.02 0.05 0.04 95 1013.5
20260903074318 71 213 1.0 4.0 0.02 0.05 0.04 95 1013.5
20260903074231 71 147 0.0 4.0 0.02 0.05 0.04 95 1013.5
20260903074213 71 182 1.0 4.0 0.02 0.05 0.04 95 1013.5
20260903074106 71 244 1.0 4.0 0.02 0.05 0.04 95 1013.5
20260903074001 71 245 2.0 4.0 0.02 0.05 0.04 95 1013.5
20260903073854 71 167 1.0 4.0 0.02 0.05 0.04 95 1013.5
20260903073749 71 204 2.0 4.0 0.02 0.05 0.04 95 1013.5
20260903073723 71 173 2.0 4.0 0.02 0.05 0.04 95 1013.5
20260903073643 71 199 2.0 4.0 0.02 0.05 0.04 95 1013.5
20260903073537 71 183 2.0 3.0 0.02 0.05 0.04 95 1013.5
20260903073432 71 179 0.0 2.0 0.02 0.05 0.04 95 1013.1
20260903073327 71 182 0.0 2.0 0.02 0.05 0.04 95 1013.1
20260903073220 71 168 0.0 2.0 0.02 0.05 0.04 95 1013.1
20260903073115 71 194 0.0 2.0 0.02 0.05 0.04 95 1013.1
20260903073010 71 125 0.0 2.0 0.02 0.05 0.04 95 1013.1
20260903072904 71 213 0.0 2.0 0.02 0.05 0.04 95 1013.1
20260903072758 71 194 0.0 2.0 0.02 0.05 0.04 95 1013.1
20260903072710 71 172 0.0 2.0 0.02 0.05 0.04 95 1012.8
20260903072652 71 88 0.0 2.0 0.02 0.05 0.04 95 1012.8
20260903072547 71 94 0.0 2.0 0.02 0.05 0.04 95 1013.1
20260903072440 71 103 1.0 2.0 0.02 0.05 0.04 95 1013.1
20260903072335 71 174 0.0 2.0 0.02 0.05 0.04 95 1013.5
20260903072203 71 198 0.0 2.0 0.02 0.05 0.04 95 1013.5
20260903072124 71 187 1.0 2.0 0.02 0.05 0.04 95 1013.5
20260903072031 71 208 1.0 2.0 0.02 0.05 0.04 95 1013.5
20260903071912 71 214 2.0 2.0 0.04 0.05 0.04 95 1013.5
20260903071819 71 218 1.0 1.0 0.04 0.05 0.04 95 1013.1
20260903071700 71 212 1.0 1.0 0.04 0.05 0.04 95 1013.5
20260903071554 71 207 0.0 1.0 0.04 0.05 0.04 95 1013.5
20260903071448 71 225 0.0 2.0 0.04 0.05 0.04 95 1013.5
20260903071343 71 308 0.0 2.0 0.04 0.05 0.04 94 1013.5
20260903071237 71 308 0.0 3.0 0.04 0.05 0.04 94 1013.1
20260903071212 71 87 1.0 2.0 0.02 0.03 0.02 93 1013.5
20260903071206 71 316 1.0 3.0 0.04 0.05 0.04 94 1013.1
20260903071202 71 313 1.0 3.0 0.04 0.05 0.04 94 1013.5
20260903071153 71 48 0.0 3.0 0.04 0.05 0.04 94 1013.1
20260903070932 71 47 0.0 3.0 0.04 0.05 0.04 94 1013.1
20260903070923 71 85 1.0 3.0 0.04 0.05 0.04 94 1013.1
20260903070915 71 332 1.0 3.0 0.04 0.05 0.04 94 1013.1
20260903070648 71 325 0.0 3.0 0.04 0.05 0.04 94 1013.1
20260903070644 71 122 1.0 3.0 0.04 0.05 0.04 94 1012.8
20260903070636 71 99 1.0 3.0 0.04 0.05 0.04 94 1012.8
20260903070412 71 60 1.0 3.0 0.04 0.05 0.04 94 1013.1
20260903070403 71 95 1.0 2.0 0.04 0.05 0.04 94 1013.1
20260903070353 71 87 1.0 2.0 0.02 0.03 0.02 93 1013.5
20260903070034 71 160 1.0 2.0 0.02 0.03 0.02 93 1013.5
20260903065929 71 150 1.0 2.0 0.02 0.03 0.02 93 1013.9
20260903065823 71 208 0.0 2.0 0.02 0.03 0.02 93 1013.9
20260903065717 71 219 2.0 2.0 0.02 0.03 0.02 93 1013.5
20260903065628 71 219 1.0 1.0 0.02 0.03 0.02 93 1013.5
20260903065611 71 209 0.0 1.0 0.02 0.03 0.02 93 1013.5
20260903065506 71 166 0.0 1.0 0.02 0.03 0.02 93 1013.5
20260903065400 71 161 0.0 1.0 0.02 0.03 0.02 92 1013.5
20260903065254 71 132 0.0 1.0 0.02 0.03 0.02 92 1013.5
20260903065122 71 111 0.0 1.0 0.02 0.03 0.02 92 1013.1
20260903065043 71 142 0.0 1.0 0.02 0.03 0.02 92 1013.1
20260903064937 72 145 0.0 1.0 0.02 0.03 0.02 92 1013.5
20260903064831 72 136 1.0 2.0 0.02 0.03 0.02 92 1013.1
20260903064726 72 132 0.0 3.0 0.02 0.03 0.02 91 1013.1
20260903064620 72 91 0.0 3.0 0.02 0.03 0.02 91 1013.1
20260903064515 72 56 0.0 3.0 0.02 0.03 0.02 91 1013.1
20260903064408 72 56 0.0 3.0 0.02 0.03 0.02 91 1013.1
20260903064343 72 167 1.0 4.0 0.02 0.03 0.02 90 1013.1
20260903064338 72 58 1.0 4.0 0.02 0.03 0.02 90 1013.1
20260903064330 72 155 0.0 4.0 0.02 0.03 0.02 90 1013.1
20260903064052 72 158 1.0 4.0 0.02 0.03 0.02 90 1013.1
20260903063946 72 290 2.0 4.0 0.02 0.03 0.02 90 1013.1
20260903063844 72 244 0.0 6.0 0.02 0.03 0.02 90 1012.8
20260903063840 72 206 2.0 4.0 0.02 0.03 0.02 90 1012.8
20260903063831 72 178 0.0 6.0 0.02 0.03 0.02 90 1012.8
20260903063823 72 201 0.0 6.0 0.02 0.03 0.02 90 1012.8
20260903063523 72 243 1.0 7.0 0.02 0.03 0.02 90 1012.8
20260903063418 72 177 1.0 7.0 0.02 0.03 0.02 90 1012.8
20260903063311 72 184 4.0 7.0 0.02 0.03 0.02 90 1012.8
20260903063205 72 211 0.0 7.0 0.02 0.03 0.02 90 1013.1
20260903063059 72 145 1.0 7.0 0.02 0.03 0.02 91 1013.1
20260903062954 72 177 2.0 8.0 0.02 0.03 0.02 91 1013.1
20260903062848 71 205 4.0 8.0 0.02 0.03 0.02 91 1013.1
20260903062742 71 188 3.0 8.0 0.02 0.03 0.02 91 1013.5
20260903062637 71 176 2.0 8.0 0.02 0.03 0.02 92 1013.1
20260903062547 71 176 3.0 8.0 0.02 0.03 0.02 92 1013.1
20260903062531 71 214 3.0 8.0 0.02 0.03 0.02 92 1013.1
20260903062425 71 191 0.0 8.0 0.02 0.03 0.02 93 1013.1
20260903062320 71 172 1.0 8.0 0.02 0.03 0.02 93 1013.1
20260903062213 71 222 4.0 8.0 0.02 0.03 0.02 93 1013.1
20260903062108 71 237 4.0 8.0 0.02 0.03 0.02 94 1013.1
20260903062041 71 237 4.0 8.0 0.02 0.03 0.02 94 1013.1
20260903062002 71 181 3.0 7.0 0.02 0.03 0.02 94 1013.5
20260903061857 70 197 3.0 7.0 0.00 0.01 0.00 94 1013.5
20260903061750 70 158 3.0 7.0 0.00 0.01 0.00 95 1013.5
20260903061645 70 185 6.0 7.0 0.00 0.01 0.00 95 1013.5
20260903061539 70 221 2.0 4.0 0.00 0.01 0.00 95 1013.5
20260903061434 70 218 1.0 4.0 0.00 0.01 0.00 95 1013.9
20260903061328 70 171 2.0 4.0 0.00 0.01 0.00 95 1013.5
20260903061222 70 157 2.0 4.0 0.00 0.01 0.00 95 1013.9
20260903061117 70 206 3.0 4.0 0.00 0.01 0.00 95 1013.5
20260903061029 70 186 3.0 3.0 0.00 0.01 0.00 95 1013.9
20260903061011 70 200 2.0 3.0 0.00 0.01 0.00 95 1013.9
20260903060905 70 201 2.0 3.0 0.00 0.01 0.00 95 1013.5
20260903060800 70 223 2.0 2.0 0.00 0.01 0.00 95 1013.5
20260903060653 70 213 1.0 2.0 0.00 0.01 0.00 95 1013.1
20260903060548 70 230 0.0 2.0 0.00 0.01 0.00 95 1013.1
20260903060521 70 232 0.0 2.0 0.00 0.01 0.00 95 1013.1
20260903060442 70 238 0.0 2.0 0.00 0.01 0.00 95 1013.1
20260903060337 70 213 0.0 2.0 0.00 0.01 0.00 95 1013.1
20260903060244 70 212 0.0 2.0 0.00 0.01 0.00 95 1013.1
20260903060125 70 193 0.0 2.0 0.00 0.01 0.00 95 1013.1
20260903060019 70 176 0.0 2.0 0.00 0.01 0.00 95 1013.1
20260903055912 70 182 0.0 2.0 0.00 0.01 0.00 95 1013.5
20260903055806 70 219 2.0 2.0 0.00 0.01 0.00 95 1013.5
20260903055700 70 219 1.0 2.0 0.00 0.01 0.00 95 1013.5
20260903055555 70 214 1.0 2.0 0.00 0.01 0.00 95 1013.5
20260903055507 70 204 2.0 2.0 0.00 0.01 0.00 95 1013.5
20260903055449 70 198 1.0 1.0 0.00 0.01 0.00 95 1013.5
20260903055343 70 195 0.0 1.0 0.00 0.01 0.00 95 1013.5
20260903055237 70 244 0.0 1.0 0.00 0.01 0.00 94 1013.5
20260903055132 70 245 1.0 1.0 0.00 0.01 0.00 94 1013.5
20260903055025 70 246 0.0 1.0 0.00 0.01 0.00 94 1013.5
20260903054959 70 246 0.0 0.0 0.00 0.01 0.00 94 1013.5
20260903054920 70 246 0.0 0.0 0.00 0.01 0.00 94 1013.5
20260903054815 70 319 0.0 0.0 0.00 0.01 0.00 94 1013.5
20260903054709 70 319 0.0 0.0 0.00 0.01 0.00 94 1013.5
20260903054603 70 321 0.0 0.0 0.00 0.01 0.00 94 1013.5
20260903054458 70 322 0.0 0.0 0.00 0.01 0.00 94 1013.5
20260903054351 70 322 0.0 0.0 0.00 0.01 0.00 94 1013.1
20260903054246 70 323 0.0 0.0 0.00 0.01 0.00 94 1013.5
20260903054142 70 323 0.0 0.0 0.00 0.01 0.00 94 1013.1
20260903054035 70 324 0.0 0.0 0.00 0.01 0.00 94 1013.5
20260903053929 70 325 0.0 0.0 0.00 0.01 0.00 94 1013.5
20260903053823 70 324 0.0 0.0 0.00 0.01 0.00 94 1013.1
20260903053717 70 323 0.0 0.0 0.00 0.01 0.00 94 1013.9
20260903053612 70 326 0.0 0.0 0.00 0.01 0.00 94 1013.5
20260903053506 70 325 0.0 0.0 0.00 0.01 0.00 94 1013.5
20260903053439 70 324 0.0 0.0 0.00 0.01 0.00 94 1013.5
20260903053400 70 323 0.0 0.0 0.00 0.01 0.00 94 1013.5
20260903053254 70 323 0.0 0.0 0.00 0.01 0.00 94 1013.5
20260903053148 70 324 0.0 0.0 0.00 0.01 0.00 94 1013.5
20260903053042 70 325 0.0 0.0 0.00 0.01 0.00 94 1013.5
20260903052936 70 326 0.0 0.0 0.00 0.01 0.00 94 1013.5
20260903052844 70 320 0.0 1.0 0.00 0.01 0.00 94 1013.5
20260903052725 70 322 0.0 1.0 0.00 0.01 0.00 94 1013.1
20260903052619 70 325 0.0 1.0 0.00 0.01 0.00 94 1013.1
20260903052522 70 320 0.0 1.0 0.00 0.01 0.00 94 1013.5
20260903052407 70 320 0.0 1.0 0.00 0.01 0.00 94 1013.5
20260903052306 70 320 0.0 1.0 0.00 0.01 0.00 94 1013.5
20260903052157 70 320 0.0 1.0 0.00 0.01 0.00 94 1013.5
20260903052050 70 328 0.0 1.0 0.00 0.01 0.00 94 1013.5
20260903051945 70 337 0.0 2.0 0.00 0.01 0.00 94 1013.1
20260903051918 70 337 0.0 2.0 0.00 0.01 0.00 93 1013.5
20260903051839 70 37 0.0 2.0 0.00 0.01 0.00 93 1013.5
20260903051734 70 8 0.0 2.0 0.00 0.01 0.00 93 1013.5
20260903051627 70 4 0.0 2.0 0.00 0.01 0.00 93 1013.5
20260903051522 70 288 0.0 2.0 0.00 0.01 0.00 93 1013.9
20260903051416 70 251 0.0 2.0 0.00 0.01 0.00 93 1013.5
20260903051311 70 297 0.0 2.0 0.00 0.01 0.00 93 1013.5
20260903051205 70 285 0.0 2.0 0.00 0.01 0.00 93 1013.5
20260903051100 71 289 0.0 2.0 0.00 0.01 0.00 93 1013.5
20260903050954 71 314 1.0 2.0 0.00 0.01 0.00 93 1013.9
20260903050905 71 180 0.0 1.0 0.00 0.01 0.00 93 1013.5
20260903050849 71 174 0.0 1.0 0.00 0.01 0.00 93 1013.5
20260903050742 70 169 0.0 2.0 0.00 0.01 0.00 93 1013.5
20260903050637 71 169 0.0 2.0 0.00 0.01 0.00 93 1013.9
20260903050530 71 214 0.0 3.0 0.00 0.01 0.00 93 1013.9
20260903050425 70 215 0.0 3.0 0.00 0.01 0.00 93 1013.9
20260903050358 70 233 0.0 3.0 0.00 0.01 0.00 93 1013.9
20260903050319 70 237 0.0 3.0 0.00 0.01 0.00 93 1013.9
20260903050214 70 233 0.0 3.0 0.00 0.01 0.00 93 1013.9
20260903050120 71 230 0.0 3.0 0.00 0.01 0.00 93 1013.9
20260903050004 71 258 0.0 3.0 0.00 0.01 0.00 93 1013.5
20260903045856 71 246 0.0 3.0 0.00 0.01 0.00 93 1013.5
20260903045751 71 264 1.0 3.0 0.00 0.01 0.00 93 1013.5
20260903045645 71 232 2.0 3.0 0.00 0.01 0.00 93 1013.9
20260903045539 71 215 2.0 3.0 0.00 0.01 0.00 93 1013.5
20260903045434 71 212 1.0 3.0 0.00 0.01 0.00 93 1013.5
20260903045346 71 203 2.0 3.0 0.00 0.01 0.00 93 1013.5
20260903045328 71 217 2.0 3.0 0.00 0.01 0.00 93 1013.5
20260903045223 71 215 3.0 3.0 0.00 0.01 0.00 93 1013.5
20260903045118 71 155 0.0 2.0 0.00 0.01 0.00 92 1013.1
20260903045109 71 78 1.0 2.0 0.00 0.01 0.00 92 1013.5
20260903045106 71 141 0.0 2.0 0.00 0.01 0.00 92 1013.5
20260903045057 71 81 0.0 2.0 0.00 0.01 0.00 92 1013.5
20260903044759 71 115 0.0 2.0 0.00 0.01 0.00 92 1013.1
20260903044652 71 193 0.0 2.0 0.00 0.01 0.00 92 1013.1
20260903044547 71 181 0.0 2.0 0.00 0.01 0.00 92 1013.1
20260903044441 71 181 0.0 2.0 0.00 0.01 0.00 92 1013.5
20260903044335 71 161 1.0 2.0 0.00 0.01 0.00 92 1013.5
20260903044230 71 185 2.0 2.0 0.00 0.01 0.00 91 1013.5
20260903044125 71 172 0.0 2.0 0.00 0.01 0.00 91 1013.5
20260903044019 71 174 0.0 2.0 0.00 0.01 0.00 91 1013.5
20260903043913 71 196 1.0 2.0 0.00 0.01 0.00 91 1013.5
20260903043824 71 180 1.0 2.0 0.00 0.01 0.00 91 1013.5
20260903043807 71 189 1.0 2.0 0.00 0.01 0.00 91 1013.5
20260903043701 71 208 0.0 3.0 0.00 0.01 0.00 91 1013.5
20260903043608 71 232 0.0 3.0 0.00 0.01 0.00 91 1013.5
20260903043449 71 187 0.0 3.0 0.00 0.01 0.00 90 1013.9
20260903043356 71 178 0.0 3.0 0.00 0.01 0.00 90 1013.9
20260903043317 71 178 0.0 3.0 0.00 0.01 0.00 90 1013.5
20260903043238 71 215 0.0 3.0 0.00 0.01 0.00 90 1013.5
20260903043133 71 226 1.0 3.0 0.00 0.01 0.00 90 1013.9
20260903043027 71 224 0.0 3.0 0.00 0.01 0.00 90 1013.5
20260903042921 71 224 0.0 3.0 0.00 0.01 0.00 90 1013.5
20260903042815 71 207 2.0 3.0 0.00 0.01 0.00 90 1013.5
20260903042710 71 222 1.0 3.0 0.00 0.01 0.00 90 1013.5
20260903042605 71 219 2.0 4.0 0.00 0.01 0.00 90 1013.5
20260903042458 71 274 2.0 4.0 0.00 0.01 0.00 90 1013.5
20260903042353 71 144 1.0 4.0 0.00 0.01 0.00 90 1013.5
20260903042306 71 275 2.0 4.0 0.00 0.01 0.00 90 1013.5
20260903042247 71 235 1.0 4.0 0.00 0.01 0.00 90 1013.5
20260903042141 71 148 0.0 4.0 0.00 0.01 0.00 90 1013.1
20260903042036 71 204 1.0 4.0 0.00 0.01 0.00 90 1013.5
20260903041929 71 242 1.0 4.0 0.00 0.01 0.00 90 1013.1
20260903041824 71 231 2.0 4.0 0.00 0.01 0.00 90 1013.1
20260903041758 71 165 1.0 6.0 0.00 0.01 0.00 90 1013.1
20260903041717 71 270 2.0 6.0 0.00 0.01 0.00 90 1013.5
20260903041612 71 261 2.0 6.0 0.00 0.01 0.00 90 1013.1
20260903041506 71 222 1.0 6.0 0.00 0.01 0.00 90 1013.1
20260903041401 71 212 1.0 6.0 0.00 0.01 0.00 91 1013.5
20260903041254 71 252 2.0 6.0 0.00 0.01 0.00 91 1013.5
20260903041149 71 271 2.0 6.0 0.00 0.01 0.00 91 1013.5
20260903041044 71 273 2.0 6.0 0.00 0.01 0.00 91 1013.5
20260903041017 72 225 2.0 6.0 0.00 0.01 0.00 92 1013.1
20260903041013 71 216 3.0 6.0 0.00 0.01 0.00 91 1013.5
20260903041004 71 168 3.0 6.0 0.00 0.01 0.00 91 1013.1
20260903040726 72 225 2.0 6.0 0.00 0.01 0.00 92 1013.5
20260903040621 72 245 3.0 4.0 0.00 0.01 0.00 92 1013.5
20260903040514 72 203 2.0 6.0 0.00 0.01 0.00 92 1013.5
20260903040421 72 217 2.0 7.0 0.00 0.01 0.00 92 1013.5
20260903040303 72 224 2.0 7.0 0.00 0.01 0.00 92 1013.5
20260903040237 72 248 2.0 7.0 0.00 0.01 0.00 92 1013.5
20260903040157 72 240 2.0 7.0 0.00 0.01 0.00 92 1013.5
20260903040104 72 210 2.0 7.0 0.00 0.01 0.00 92 1013.5
20260903035946 72 218 1.0 7.0 0.00 0.01 0.01 92 1013.5
20260903035840 72 256 0.0 7.0 0.00 0.01 0.01 92 1013.5
20260903035735 72 255 1.0 7.0 0.00 0.01 0.01 92 1013.5
20260903035630 72 233 1.0 7.0 0.00 0.01 0.01 92 1013.5
20260903035523 73 210 4.0 7.0 0.00 0.01 0.01 92 1013.5
20260903035418 73 192 5.0 7.0 0.00 0.01 0.01 91 1013.1
20260903035311 73 167 1.0 4.0 0.00 0.01 0.01 92 1013.5
20260903035224 73 193 2.0 8.0 0.00 0.01 0.01 91 1013.5
20260903035206 73 150 2.0 8.0 0.00 0.01 0.01 91 1013.5
20260903035101 73 157 1.0 8.0 0.00 0.01 0.01 91 1013.5
20260903034954 73 199 2.0 8.0 0.00 0.01 0.01 91 1013.5
20260903034849 73 191 2.0 8.0 0.00 0.01 0.01 91 1013.1
20260903034741 73 188 2.0 8.0 0.00 0.01 0.01 91 1013.1
20260903034715 73 241 2.0 8.0 0.00 0.01 0.01 91 1013.1
20260903034635 73 173 2.0 8.0 0.00 0.01 0.01 91 1013.1
20260903034530 73 203 0.0 8.0 0.00 0.01 0.01 91 1013.1
20260903034446 73 104 0.0 8.0 0.00 0.01 0.01 91 1013.5
20260903034437 73 151 6.0 8.0 0.00 0.01 0.01 90 1013.5
20260903034427 73 235 2.0 7.0 0.00 0.01 0.01 91 1013.5
20260903034107 73 304 4.0 7.0 0.00 0.01 0.01 90 1013.5
20260903034001 73 228 3.0 7.0 0.00 0.01 0.01 90 1013.5
20260903033856 73 230 2.0 7.0 0.00 0.01 0.01 90 1013.9
20260903033750 73 200 2.0 8.0 0.00 0.01 0.01 90 1013.5
20260903033702 73 200 5.0 8.0 0.00 0.01 0.01 90 1013.5
20260903033645 73 177 5.0 8.0 0.00 0.01 0.01 90 1013.5
20260903033538 73 169 3.0 8.0 0.00 0.01 0.01 90 1013.1
20260903033433 73 234 2.0 8.0 0.00 0.01 0.01 90 1013.1
20260903033327 73 174 3.0 8.0 0.00 0.01 0.01 90 1013.1
20260903033221 74 191 6.0 10.0 0.00 0.01 0.01 90 1013.1
20260903033155 74 189 3.0 10.0 0.00 0.01 0.01 90 1013.1
20260903033117 74 211 1.0 11.0 0.00 0.01 0.01 90 1013.1
20260903033010 74 252 3.0 11.0 0.00 0.01 0.01 90 1013.1
20260903032905 74 254 4.0 11.0 0.00 0.01 0.01 90 1012.8
20260903032759 74 139 2.0 11.0 0.00 0.01 0.01 90 1012.8
20260903032653 74 204 4.0 11.0 0.00 0.01 0.01 89 1012.8
20260903032547 74 223 3.0 11.0 0.00 0.01 0.01 90 1013.1
20260903032442 74 154 2.0 11.0 0.00 0.01 0.01 90 1013.5
20260903032336 74 227 3.0 11.0 0.00 0.01 0.01 90 1013.9
20260903032230 74 208 5.0 11.0 0.00 0.01 0.01 90 1013.9
20260903032141 75 177 7.0 11.0 0.00 0.01 0.01 90 1013.9
20260903032125 75 218 4.0 10.0 0.00 0.01 0.01 90 1013.9
20260903032019 75 157 8.0 10.0 0.00 0.01 0.01 90 1013.9
20260903031929 75 220 1.0 10.0 0.00 0.01 0.01 90 1013.9
20260903031908 75 150 4.0 10.0 0.00 0.01 0.01 90 1013.9
20260903031901 75 179 5.0 10.0 0.00 0.01 0.01 90 1013.9
20260903031853 75 246 8.0 10.0 0.00 0.01 0.01 89 1013.5
20260903031554 75 164 2.0 10.0 0.00 0.01 0.01 89 1013.9
20260903031449 76 162 5.0 9.0 0.00 0.01 0.01 89 1013.9
20260903031404 76 215 5.0 9.0 0.00 0.01 0.01 89 1013.9
20260903031355 76 188 4.0 9.0 0.00 0.01 0.01 88 1014.2
20260903031345 75 190 5.0 9.0 0.00 0.01 0.01 88 1013.9
20260903031026 75 185 3.0 9.0 0.00 0.01 0.01 88 1013.9
20260903030921 75 226 4.0 9.0 0.00 0.01 0.01 87 1013.9
20260903030815 75 179 6.0 9.0 0.00 0.01 0.01 87 1014.2
20260903030709 75 186 7.0 9.0 0.00 0.01 0.01 87 1014.2
20260903030621 75 210 4.0 9.0 0.00 0.01 0.01 87 1013.9
20260903030604 75 156 6.0 9.0 0.00 0.01 0.01 87 1013.9
20260903030458 75 213 4.0 6.0 0.00 0.01 0.01 87 1013.9
20260903030352 75 211 3.0 6.0 0.00 0.01 0.01 88 1013.5
20260903030247 75 208 4.0 4.0 0.00 0.01 0.01 87 1013.5
20260903030115 75 218 4.0 4.0 0.00 0.01 0.01 87 1013.1
20260903030048 75 188 0.0 2.0 0.00 0.01 0.01 87 1013.1
20260903025846 75 171 0.0 2.0 0.00 0.01 0.01 88 1012.8
20260903025838 75 147 0.0 2.0 0.00 0.01 0.01 88 1012.4
20260903025827 75 146 0.0 2.0 0.00 0.01 0.01 88 1012.4
20260903025507 75 161 0.0 2.0 0.00 0.01 0.01 88 1012.1
20260903025401 75 146 0.0 2.0 0.00 0.01 0.01 89 1011.8
20260903025257 75 197 0.0 2.0 0.00 0.01 0.01 88 1012.1
20260903025152 75 161 0.0 2.0 0.00 0.01 0.01 88 1012.1
20260903025104 75 175 1.0 2.0 0.00 0.01 0.01 88 1012.1
20260903025046 75 200 2.0 2.0 0.00 0.01 0.01 88 1012.1
20260903024941 76 217 1.0 1.0 0.00 0.01 0.01 89 1012.1
20260903024834 75 167 0.0 1.0 0.00 0.01 0.01 88 1012.1
20260903024729 76 172 0.0 1.0 0.00 0.01 0.01 88 1011.8
20260903024623 76 158 0.0 1.0 0.00 0.01 0.01 88 1012.1
20260903024556 76 158 0.0 1.0 0.00 0.01 0.01 88 1012.1
20260903024517 76 164 0.0 1.0 0.00 0.01 0.01 88 1012.4
20260903024412 76 164 0.0 2.0 0.00 0.01 0.01 88 1012.1
20260903024305 76 196 0.0 2.0 0.00 0.01 0.01 88 1012.1
20260903024200 76 217 0.0 2.0 0.00 0.01 0.01 88 1012.4
20260903024056 76 205 0.0 2.0 0.00 0.01 0.01 88 1012.4
20260903023947 76 191 0.0 2.0 0.00 0.01 0.01 88 1012.1
20260903023842 76 102 0.0 2.0 0.00 0.01 0.01 88 1012.1
20260903023736 76 102 0.0 2.0 0.00 0.01 0.01 88 1011.8
20260903023631 76 63 0.0 2.0 0.00 0.01 0.01 87 1011.4
20260903023542 76 113 0.0 2.0 0.00 0.01 0.01 88 1011.4
20260903023525 76 128 0.0 2.0 0.00 0.01 0.01 87 1011.4
20260903023419 76 23 1.0 2.0 0.00 0.01 0.01 87 1011.4
20260903023314 76 80 0.0 2.0 0.00 0.01 0.01 88 1011.8
20260903023206 76 121 0.0 2.0 0.00 0.01 0.01 88 1011.8
20260903023033 76 121 0.0 2.0 0.00 0.01 0.01 88 1011.8
20260903022954 76 118 0.0 2.0 0.00 0.01 0.01 88 1011.8
20260903022849 76 119 0.0 2.0 0.00 0.01 0.01 88 1011.8
20260903022744 76 97 0.0 2.0 0.00 0.01 0.01 87 1011.8
20260903022637 76 59 1.0 2.0 0.00 0.01 0.01 87 1012.1
20260903022531 76 310 0.0 1.0 0.00 0.01 0.01 87 1012.1
20260903022426 76 324 1.0 1.0 0.00 0.01 0.01 87 1012.1
20260903022320 76 64 0.0 1.0 0.00 0.01 0.01 87 1012.1
20260903022252 76 100 0.0 1.0 0.00 0.01 0.01 88 1012.1
20260903022247 76 91 0.0 1.0 0.00 0.01 0.01 88 1012.1
20260903022238 76 111 0.0 1.0 0.00 0.01 0.01 88 1012.1
20260903022004 76 121 0.0 1.0 0.00 0.01 0.01 88 1012.1
20260903021857 76 90 0.0 1.0 0.00 0.01 0.01 88 1012.1
20260903021752 77 88 0.0 1.0 0.00 0.01 0.01 87 1012.4
20260903021646 77 68 0.0 1.0 0.00 0.01 0.01 87 1012.4
20260903021541 77 35 0.0 1.0 0.00 0.01 0.01 87 1012.8
20260903021514 77 23 0.0 1.0 0.00 0.01 0.01 87 1012.8
20260903021435 77 52 0.0 1.0 0.00 0.01 0.01 86 1012.4
20260903021329 77 103 0.0 1.0 0.00 0.01 0.01 86 1012.8
20260903021223 77 54 0.0 2.0 0.00 0.01 0.01 85 1012.8
20260903021117 77 46 0.0 2.0 0.00 0.01 0.01 85 1013.1
20260903021012 77 340 0.0 2.0 0.00 0.01 0.01 85 1012.8
20260903020906 77 339 0.0 2.0 0.00 0.01 0.01 85 1012.8
20260903020813 77 339 0.0 2.0 0.00 0.01 0.01 84 1013.1
20260903020655 78 339 0.0 2.0 0.00 0.01 0.01 84 1013.1
20260903020549 78 337 0.0 2.0 0.00 0.01 0.01 84 1013.1
20260903020501 78 337 0.0 2.0 0.00 0.01 0.01 84 1012.8
20260903020457 78 337 0.0 2.0 0.00 0.01 0.01 83 1012.8
20260903020351 77 337 0.0 2.0 0.00 0.01 0.01 83 1013.1
20260903020230 77 308 0.0 2.0 0.00 0.01 0.01 83 1013.1
20260903020126 78 318 0.0 2.0 0.00 0.01 0.01 83 1013.1
20260903020032 78 11 0.0 1.0 0.00 0.01 0.01 83 1013.1
20260903015952 78 24 0.0 1.0 0.00 0.01 0.01 83 1013.1
20260903015913 78 23 0.0 1.0 0.00 0.01 0.01 83 1013.1
20260903015808 78 359 0.0 1.0 0.00 0.01 0.01 83 1013.5
20260903015720 78 4 0.0 2.0 0.00 0.01 0.01 83 1013.1
20260903015712 78 91 0.0 2.0 0.00 0.01 0.01 83 1013.1
20260903015701 78 80 0.0 2.0 0.00 0.01 0.01 83 1012.8
20260903015345 78 6 0.0 2.0 0.00 0.01 0.01 83 1013.1
20260903015240 78 303 0.0 2.0 0.00 0.01 0.01 83 1013.1
20260903015213 77 340 0.0 3.0 0.00 0.01 0.01 83 1013.1
20260903015209 78 287 0.0 3.0 0.00 0.01 0.01 83 1012.8
20260903015200 78 306 1.0 3.0 0.00 0.01 0.01 83 1013.1
20260903014922 77 289 0.0 3.0 0.00 0.01 0.01 84 1013.1
20260903014817 77 259 0.0 4.0 0.00 0.01 0.01 84 1013.1
20260903014711 77 85 1.0 4.0 0.00 0.01 0.01 84 1013.1
20260903014605 77 5 1.0 4.0 0.00 0.01 0.01 85 1013.1
20260903014500 77 331 2.0 4.0 0.00 0.01 0.01 85 1013.1
20260903014433 77 56 1.0 4.0 0.00 0.01 0.01 85 1013.1
20260903014354 77 345 1.0 4.0 0.00 0.01 0.01 86 1013.1
20260903014248 77 233 0.0 4.0 0.00 0.01 0.01 86 1012.8
20260903014203 77 161 0.0 4.0 0.00 0.01 0.01 86 1012.8
20260903014155 77 108 1.0 4.0 0.00 0.01 0.01 86 1013.1
20260903014145 77 97 1.0 4.0 0.00 0.01 0.01 86 1012.8
20260903013826 77 316 2.0 3.0 0.00 0.01 0.01 86 1013.1
20260903013719 77 13 1.0 1.0 0.00 0.01 0.01 85 1013.1
20260903013614 77 229 0.0 1.0 0.00 0.01 0.01 86 1012.8
20260903013508 77 105 1.0 1.0 0.00 0.01 0.01 85 1012.8
20260903013420 77 36 0.0 1.0 0.00 0.01 0.01 85 1012.8
20260903013402 77 340 0.0 0.0 0.00 0.01 0.01 85 1012.8
20260903013257 77 324 0.0 0.0 0.00 0.01 0.01 84 1012.8
20260903013151 77 289 0.0 0.0 0.00 0.01 0.01 84 1012.8
20260903013045 77 151 0.0 0.0 0.00 0.01 0.01 85 1012.4
20260903012940 77 130 0.0 0.0 0.00 0.01 0.01 85 1012.4
20260903012913 77 130 0.0 0.0 0.01 0.01 0.01 85 1012.4
20260903012834 77 106 0.0 0.0 0.01 0.01 0.01 85 1012.8
20260903012728 78 123 0.0 0.0 0.01 0.01 0.01 85 1012.4
20260903012622 78 57 0.0 0.0 0.01 0.01 0.01 85 1012.4
20260903012516 78 1 0.0 0.0 0.01 0.01 0.01 84 1012.8
20260903012411 78 326 0.0 0.0 0.01 0.01 0.01 83 1012.4
20260903012306 78 309 0.0 0.0 0.01 0.01 0.01 84 1012.4
20260903012159 78 237 0.0 0.0 0.01 0.01 0.01 83 1012.8
20260903012054 78 301 0.0 0.0 0.01 0.01 0.01 84 1012.4
20260903011948 78 189 0.0 0.0 0.01 0.01 0.01 84 1012.4
20260903011859 78 151 0.0 0.0 0.01 0.01 0.01 83 1012.4
20260903011843 78 157 0.0 0.0 0.01 0.01 0.01 83 1012.4
20260903011736 78 305 0.0 0.0 0.01 0.01 0.01 83 1012.8
20260903011636 78 32 0.0 0.0 0.01 0.01 0.01 84 1012.4
20260903011632 78 43 0.0 0.0 0.01 0.01 0.01 84 1012.4
20260903011623 78 43 0.0 0.0 0.01 0.01 0.01 84 1012.4
20260903011615 78 26 0.0 0.0 0.01 0.01 0.01 84 1012.4
20260903011314 78 343 0.0 0.0 0.01 0.01 0.01 84 1012.4
20260903011208 78 324 0.0 0.0 0.01 0.01 0.01 84 1012.4
20260903011102 78 281 0.0 0.0 0.01 0.01 0.01 84 1012.4
20260903010957 78 200 0.0 0.0 0.01 0.01 0.01 84 1012.4
20260903010850 78 189 0.0 0.0 0.01 0.01 0.01 84 1012.4
20260903010758 78 149 0.0 0.0 0.01 0.01 0.01 84 1012.4
20260903010652 78 169 0.0 0.0 0.01 0.01 0.01 85 1012.4
20260903010534 78 197 0.0 0.0 0.01 0.01 0.01 85 1012.8
20260903010428 78 199 0.0 0.0 0.01 0.01 0.01 84 1012.4
20260903010340 78 142 0.0 0.0 0.01 0.01 0.01 84 1012.4
20260903010322 78 134 0.0 0.0 0.01 0.01 0.01 84 1012.4
20260903010217 78 121 0.0 0.0 0.01 0.01 0.01 84 1012.4
20260903010114 78 176 0.0 0.0 0.01 0.01 0.01 83 1012.4
20260903010005 78 242 0.0 0.0 0.01 0.01 0.01 82 1012.4
20260903005859 79 188 0.0 0.0 0.01 0.01 0.01 81 1012.4
20260903005833 79 187 0.0 0.0 0.01 0.01 0.01 81 1012.4
20260903005754 79 105 0.0 0.0 0.01 0.01 0.01 81 1012.4
20260903005648 79 121 0.0 0.0 0.01 0.01 0.01 81 1012.1
20260903005542 79 209 0.0 0.0 0.01 0.01 0.01 80 1012.4
20260903005437 79 266 0.0 0.0 0.01 0.01 0.01 80 1012.4
20260903005330 79 300 0.0 0.0 0.01 0.01 0.01 80 1012.1
20260903005225 79 176 0.0 2.0 0.01 0.01 0.01 80 1012.1
20260903005119 79 304 0.0 2.0 0.01 0.01 0.01 79 1012.1
20260903005014 79 292 0.0 2.0 0.01 0.01 0.01 79 1012.1
20260903004908 79 188 0.0 2.0 0.01 0.01 0.01 79 1012.1
20260903004819 79 196 0.0 3.0 0.01 0.01 0.01 79 1012.1
20260903004803 79 187 0.0 3.0 0.01 0.01 0.01 79 1012.1
20260903004656 79 189 0.0 3.0 0.01 0.01 0.01 79 1012.4
20260903004552 79 193 0.0 3.0 0.01 0.01 0.01 78 1012.1
20260903004458 79 199 0.0 4.0 0.01 0.01 0.01 79 1012.1
20260903004340 80 289 0.0 6.0 0.01 0.01 0.01 78 1012.1
20260903004313 80 321 1.0 9.0 0.01 0.01 0.01 78 1012.1
20260903004234 80 291 2.0 9.0 0.01 0.01 0.01 77 1012.1
20260903004128 80 197 0.0 9.0 0.01 0.01 0.01 78 1012.1
20260903004024 80 196 1.0 9.0 0.01 0.01 0.01 77 1012.1
20260903003917 80 209 3.0 9.0 0.01 0.01 0.01 77 1012.1
20260903003811 80 125 1.0 11.0 0.01 0.01 0.01 77 1012.1
20260903003705 80 121 0.0 11.0 0.01 0.01 0.01 78 1012.1
20260903003600 80 118 0.0 11.0 0.01 0.01 0.01 77 1012.1
20260903003454 81 152 3.0 11.0 0.01 0.01 0.01 76 1012.1
20260903003348 81 237 4.0 11.0 0.01 0.01 0.01 77 1012.1
20260903003259 82 200 6.0 11.0 0.01 0.01 0.01 78 1012.1
20260903003243 82 162 2.0 11.0 0.01 0.01 0.01 79 1012.1
20260903003140 83 157 4.0 11.0 0.01 0.01 0.01 77 1012.1
20260903003027 84 225 2.0 11.0 0.01 0.01 0.01 76 1012.1
20260903002922 85 244 4.0 11.0 0.00 0.00 0.01 73 1012.1
20260903002817 86 184 4.0 11.0 0.00 0.00 0.00 71 1012.1
20260903002800 87 118 6.0 11.0 0.00 0.00 0.00 70 1012.1
20260903002711 87 239 3.0 11.0 0.00 0.00 0.00 68 1012.4
20260903002605 87 206 4.0 7.0 0.00 0.00 0.00 66 1012.4
20260903002459 87 231 3.0 4.0 0.00 0.00 0.00 66 1012.1
20260903002354 86 226 1.0 4.0 0.00 0.00 0.00 66 1011.8
20260903002254 86 185 2.0 4.0 0.00 0.00 0.00 66 1011.8
20260903002247 86 244 4.0 4.0 0.00 0.00 0.00 66 1011.8
20260903002142 86 193 1.0 4.0 0.00 0.00 0.00 67 1011.8
20260903002035 87 215 1.0 4.0 0.00 0.00 0.00 67 1011.8
20260903001931 87 214 2.0 4.0 0.00 0.00 0.00 67 1011.8
20260903001825 87 201 2.0 3.0 0.00 0.00 0.00 66 1011.8
20260903001747 87 204 3.0 3.0 0.00 0.00 0.00 66 1011.8
20260903001719 87 199 1.0 3.0 0.00 0.00 0.00 66 1011.8
20260903001613 87 195 2.0 6.0 0.00 0.00 0.00 66 1011.8
20260903001508 87 184 1.0 7.0 0.00 0.00 0.00 66 1011.8
20260903001415 87 196 2.0 7.0 0.00 0.00 0.00 66 1011.8
20260903001241 87 191 0.0 7.0 0.00 0.00 0.00 66 1011.8
20260903001150 87 191 0.0 7.0 0.00 0.00 0.00 65 1012.1
20260903001045 87 202 1.0 7.0 0.00 0.00 0.00 66 1012.1
20260903000939 87 199 1.0 7.0 0.00 0.00 0.00 66 1011.8
20260903000833 87 207 2.0 7.0 0.00 0.00 0.00 65 1011.8
20260903000734 87 85 2.0 7.0 0.00 0.00 0.00 65 1012.1
20260903000727 87 218 2.0 7.0 0.00 0.00 0.00 65 1012.1
20260903000622 87 157 3.0 7.0 0.00 0.00 0.00 66 1011.8
20260903000529 87 177 0.0 3.0 0.00 0.00 0.00 66 1011.8
20260903000410 87 193 1.0 3.0 0.00 0.00 0.00 66 1012.1
20260903000305 87 212 0.0 3.0 0.00 0.00 0.00 66 1011.8
20260903000227 87 185 0.0 3.0 0.00 0.00 0.00 66 1011.8
20260903000159 87 162 0.0 3.0 0.00 0.00 0.00 66 1011.8
20260903000107 87 213 1.0 3.0 0.00 0.00 0.00 66 1012.1
20260902235949 87 215 1.0 3.0 0.00 0.00 0.00 65 1012.1
20260902235842 87 222 1.0 3.0 0.00 0.00 0.00 65 1012.1
20260902235721 87 208 0.0 3.0 0.00 0.00 0.00 65 1012.1
20260902235630 87 191 1.0 3.0 0.00 0.00 0.00 65 1012.1
20260902235524 87 216 2.0 3.0 0.00 0.00 0.00 65 1012.1
20260902235419 87 201 0.0 3.0 0.00 0.00 0.00 65 1012.1
20260902235313 87 201 1.0 4.0 0.00 0.00 0.00 65 1012.1
20260902235214 87 201 2.0 4.0 0.00 0.00 0.00 65 1012.1
20260902235208 87 174 0.0 4.0 0.00 0.00 0.00 66 1012.1
20260902235101 87 188 0.0 4.0 0.00 0.00 0.00 65 1012.1
20260902234956 87 179 2.0 4.0 0.00 0.00 0.00 65 1012.4
20260902234851 87 207 1.0 4.0 0.00 0.00 0.00 65 1012.1
20260902234744 87 221 0.0 4.0 0.00 0.00 0.00 65 1011.8
20260902234708 87 217 0.0 4.0 0.00 0.00 0.00 65 1011.8
20260902234640 87 217 0.0 4.0 0.00 0.00 0.00 65 1012.1
20260902234533 87 152 1.0 4.0 0.00 0.00 0.00 65 1012.1
20260902234428 87 94 1.0 4.0 0.00 0.00 0.00 65 1011.8
20260902234322 87 239 0.0 4.0 0.00 0.00 0.00 65 1012.1
20260902234200 87 242 0.0 4.0 0.00 0.00 0.00 65 1012.1
20260902234111 87 242 1.0 4.0 0.00 0.00 0.00 64 1012.1
20260902234005 87 216 1.0 4.0 0.00 0.00 0.00 65 1011.8
20260902233859 87 196 1.0 4.0 0.00 0.00 0.00 64 1011.8
20260902233754 87 251 3.0 4.0 0.00 0.00 0.00 64 1012.1
20260902233654 87 173 0.0 3.0 0.00 0.00 0.00 65 1012.1
20260902233648 87 172 0.0 3.0 0.00 0.00 0.00 65 1012.1
20260902233542 87 199 0.0 3.0 0.00 0.00 0.00 64 1012.4
20260902233436 87 183 0.0 3.0 0.00 0.00 0.00 65 1012.1
20260902233331 88 196 1.0 3.0 0.00 0.00 0.00 65 1012.1
20260902233225 88 159 0.0 3.0 0.00 0.00 0.00 64 1011.8
20260902233148 88 169 1.0 3.0 0.00 0.00 0.00 64 1011.8
20260902233119 88 197 0.0 3.0 0.00 0.00 0.00 64 1011.8
20260902233014 88 192 1.0 3.0 0.00 0.00 0.00 63 1012.1
20260902232921 88 152 1.0 3.0 0.00 0.00 0.00 63 1012.1
20260902232802 88 201 0.0 3.0 0.00 0.00 0.00 62 1012.1
20260902232656 88 166 2.0 3.0 0.00 0.00 0.00 62 1012.1
20260902232641 88 199 1.0 3.0 0.00 0.00 0.00 63 1012.1
20260902232550 88 200 0.0 4.0 0.00 0.00 0.00 62 1012.1
20260902232445 88 186 1.0 4.0 0.00 0.00 0.00 62 1012.1
20260902232340 88 205 2.0 4.0 0.00 0.00 0.00 62 1012.4
20260902232233 88 209 2.0 4.0 0.00 0.00 0.00 62 1012.1
20260902232134 89 234 2.0 4.0 0.00 0.00 0.00 61 1012.1
20260902232128 89 283 2.0 4.0 0.00 0.00 0.00 61 1012.1
20260902232023 89 168 2.0 4.0 0.00 0.00 0.00 62 1012.4
20260902231916 89 308 1.0 4.0 0.00 0.00 0.00 61 1012.4
20260902231810 89 136 0.0 4.0 0.00 0.00 0.00 61 1012.4
20260902231655 89 283 2.0 4.0 0.00 0.00 0.00 61 1012.1
20260902231628 89 285 3.0 4.0 0.00 0.00 0.00 61 1012.4
20260902231549 89 233 1.0 4.0 0.00 0.00 0.00 61 1012.4
20260902231444 89 157 1.0 4.0 0.00 0.00 0.00 61 1012.1
20260902231338 89 335 2.0 4.0 0.00 0.00 0.00 60 1012.4
20260902231233 89 191 1.0 7.0 0.00 0.00 0.00 60 1012.1
20260902231126 89 195 2.0 7.0 0.00 0.00 0.00 60 1012.1
20260902231034 89 170 0.0 7.0 0.00 0.00 0.00 60 1012.1
20260902230915 89 314 1.0 7.0 0.00 0.00 0.00 60 1012.4
20260902230810 89 177 0.0 7.0 0.00 0.00 0.00 60 1012.4
20260902230703 89 147 0.0 8.0 0.00 0.00 0.00 60 1012.1
20260902230615 89 132 1.0 9.0 0.00 0.00 0.00 60 1012.1
20260902230558 89 275 1.0 9.0 0.00 0.00 0.00 60 1012.1
20260902230452 90 200 1.0 10.0 0.00 0.00 0.00 59 1012.1
20260902230347 90 305 2.0 11.0 0.00 0.00 0.00 59 1012.1
20260902230254 90 265 1.0 11.0 0.00 0.00 0.00 59 1012.4
20260902230135 90 166 0.0 11.0 0.00 0.00 0.00 59 1012.1
20260902230109 90 148 0.0 11.0 0.00 0.00 0.00 59 1012.1
20260902230042 90 121 2.0 11.0 0.00 0.00 0.00 59 1012.1
20260902225923 90 85 1.0 11.0 0.00 0.00 0.00 58 1012.1
20260902225839 90 165 2.0 11.0 0.00 0.00 0.00 58 1012.1
20260902225830 90 250 5.0 11.0 0.00 0.00 0.00 58 1012.1
20260902225820 90 180 3.0 11.0 0.00 0.00 0.00 58 1012.1
20260902225500 90 229 8.0 11.0 0.00 0.00 0.00 57 1012.1
20260902225355 90 166 2.0 11.0 0.00 0.00 0.00 57 1012.4
20260902225250 90 238 6.0 11.0 0.00 0.00 0.00 57 1012.4
20260902225143 90 275 9.0 11.0 0.00 0.00 0.00 57 1012.1
20260902225056 90 218 3.0 8.0 0.00 0.00 0.00 58 1012.1
20260902225038 90 67 3.0 8.0 0.00 0.00 0.00 58 1012.1
20260902224932 90 246 1.0 8.0 0.00 0.00 0.00 59 1012.1
20260902224826 90 280 1.0 8.0 0.00 0.00 0.00 58 1012.1
20260902224721 90 204 4.0 10.0 0.00 0.00 0.00 58 1011.8
20260902224616 90 240 5.0 10.0 0.00 0.00 0.00 58 1012.1
20260902224549 90 246 6.0 10.0 0.00 0.00 0.00 57 1012.1
20260902224510 90 232 3.0 10.0 0.00 0.00 0.00 59 1012.1
20260902224404 90 225 1.0 10.0 0.00 0.00 0.00 58 1012.1
20260902224318 90 154 2.0 10.0 0.00 0.00 0.00 57 1012.1
20260902224309 91 141 2.0 10.0 0.00 0.00 0.00 57 1011.8
20260902224258 91 286 4.0 10.0 0.00 0.00 0.00 56 1011.8
20260902223941 91 152 4.0 10.0 0.00 0.00 0.00 56 1011.8
20260902223835 91 184 3.0 10.0 0.00 0.00 0.00 56 1011.8
20260902223730 91 242 6.0 10.0 0.00 0.00 0.00 56 1011.8
20260902223624 91 211 4.0 18.0 0.00 0.00 0.00 56 1011.8
20260902223535 91 280 3.0 18.0 0.00 0.00 0.00 56 1011.8
20260902223518 91 224 6.0 18.0 0.00 0.00 0.00 56 1011.8
20260902223413 91 235 6.0 18.0 0.00 0.00 0.00 56 1011.8
20260902223310 91 236 1.0 18.0 0.00 0.00 0.00 56 1011.8
20260902223301 91 199 6.0 18.0 0.00 0.00 0.00 56 1011.8
20260902223253 91 240 2.0 18.0 0.00 0.00 0.00 56 1011.8
20260902223245 91 240 5.0 18.0 0.00 0.00 0.00 56 1011.4
20260902222949 91 220 5.0 18.0 0.00 0.00 0.00 55 1011.8
20260902222842 91 155 2.0 18.0 0.00 0.00 0.00 55 1011.4
20260902222736 92 279 4.0 18.0 0.00 0.00 0.00 56 1011.8
20260902222631 92 211 5.0 13.0 0.00 0.00 0.00 56 1011.4
20260902222525 92 187 7.0 13.0 0.00 0.00 0.00 56 1011.8
20260902222432 92 199 0.0 13.0 0.00 0.00 0.00 57 1011.4
20260902222313 92 317 8.0 13.0 0.00 0.00 0.00 56 1011.4
20260902222209 92 231 6.0 9.0 0.00 0.00 0.00 57 1011.4
20260902222104 91 215 3.0 9.0 0.00 0.00 0.00 57 1011.8
20260902222013 91 179 1.0 9.0 0.00 0.00 0.00 57 1011.8
20260902222009 91 291 2.0 9.0 0.00 0.00 0.00 57 1011.8
20260902221851 91 224 7.0 9.0 0.00 0.00 0.00 57 1011.8
20260902221746 91 186 4.0 9.0 0.00 0.00 0.00 57 1011.8
20260902221640 91 231 3.0 8.0 0.00 0.00 0.00 57 1011.8
20260902221534 91 217 1.0 8.0 0.00 0.00 0.00 57 1011.8
20260902221507 91 169 2.0 8.0 0.00 0.00 0.00 58 1011.8
20260902221428 91 224 2.0 10.0 0.00 0.00 0.00 58 1011.8
20260902221323 91 210 3.0 10.0 0.00 0.00 0.00 58 1011.8
20260902221256 91 308 3.0 10.0 0.00 0.00 0.00 57 1011.8
20260902221252 91 217 3.0 10.0 0.00 0.00 0.00 58 1011.8
20260902221243 91 187 2.0 10.0 0.00 0.00 0.00 58 1011.8
20260902221220 91 308 3.0 10.0 0.00 0.00 0.00 57 1011.8
20260902220900 91 244 2.0 10.0 0.00 0.00 0.00 57 1011.8
20260902220754 92 6 3.0 10.0 0.00 0.00 0.00 57 1011.8
20260902220648 92 148 6.0 10.0 0.00 0.00 0.00 56 1011.8
20260902220542 92 254 2.0 10.0 0.00 0.00 0.00 56 1011.8
20260902220454 91 228 6.0 10.0 0.00 0.00 0.00 57 1011.8
20260902220437 91 232 2.0 10.0 0.00 0.00 0.00 57 1011.8
20260902220331 91 241 4.0 10.0 0.00 0.00 0.00 57 1011.8
20260902220225 91 230 2.0 10.0 0.00 0.00 0.00 58 1011.8
20260902220124 91 201 1.0 13.0 0.00 0.00 0.00 57 1011.8
20260902220014 91 199 3.0 13.0 0.00 0.00 0.00 57 1011.8
20260902215947 91 170 2.0 13.0 0.00 0.00 0.00 57 1011.8
20260902215908 91 210 4.0 14.0 0.00 0.00 0.00 57 1011.8
20260902215743 92 132 6.0 16.0 0.00 0.00 0.00 57 1011.8
20260902215717 92 238 4.0 16.0 0.00 0.00 0.00 56 1011.1
20260902215713 92 205 0.0 16.0 0.00 0.00 0.00 56 1011.8
20260902215705 92 231 6.0 16.0 0.00 0.00 0.00 57 1011.1
20260902215426 92 244 5.0 16.0 0.00 0.00 0.00 57 1011.4
20260902215320 92 181 4.0 16.0 0.00 0.00 0.00 56 1011.4
20260902215214 92 220 4.0 16.0 0.00 0.00 0.00 57 1011.4
20260902215108 92 193 5.0 16.0 0.00 0.00 0.00 56 1011.4
20260902215003 92 203 4.0 16.0 0.00 0.00 0.00 56 1011.8
20260902214937 92 156 8.0 16.0 0.00 0.00 0.00 56 1011.8
20260902214858 92 244 5.0 16.0 0.00 0.00 0.00 56 1011.4
20260902214751 92 167 4.0 9.0 0.00 0.00 0.00 57 1011.4
20260902214645 92 236 1.0 9.0 0.00 0.00 0.00 58 1011.4
20260902214540 93 264 3.0 9.0 0.00 0.00 0.00 57 1011.4
20260902214434 93 239 3.0 9.0 0.00 0.00 0.00 57 1011.8
20260902214329 92 247 4.0 8.0 0.00 0.00 0.00 57 1011.4
20260902214223 92 243 2.0 8.0 0.00 0.00 0.00 58 1011.8
20260902214159 92 333 2.0 8.0 0.00 0.00 0.00 58 1011.4
20260902214152 92 219 2.0 8.0 0.00 0.00 0.00 58 1011.8
20260902214143 92 157 1.0 8.0 0.00 0.00 0.00 58 1011.4
20260902213905 92 193 2.0 8.0 0.00 0.00 0.00 57 1011.4
20260902213800 92 160 4.0 8.0 0.00 0.00 0.00 58 1011.4
20260902213654 92 249 1.0 8.0 0.00 0.00 0.00 58 1011.8
20260902213549 92 264 2.0 6.0 0.00 0.00 0.00 57 1011.8
20260902213442 92 245 3.0 6.0 0.00 0.00 0.00 57 1011.4
20260902213416 92 185 4.0 6.0 0.00 0.00 0.00 57 1011.4
20260902213337 92 199 4.0 6.0 0.00 0.00 0.00 58 1011.8
20260902213232 92 199 0.0 6.0 0.00 0.00 0.00 58 1011.8
20260902213126 92 136 1.0 6.0 0.00 0.00 0.00 58 1011.8
20260902213020 93 276 4.0 10.0 0.00 0.00 0.00 57 1011.8
20260902212913 93 198 0.0 10.0 0.00 0.00 0.00 57 1011.8
20260902212809 93 279 2.0 10.0 0.00 0.00 0.00 56 1011.8
20260902212703 93 297 3.0 10.0 0.00 0.00 0.00 55 1011.8
20260902212634 92 250 1.0 10.0 0.00 0.00 0.00 56 1011.8
20260902212630 92 135 0.0 10.0 0.00 0.00 0.00 56 1011.8
20260902212621 92 174 1.0 10.0 0.00 0.00 0.00 56 1011.8
20260902212346 92 290 0.0 10.0 0.00 0.00 0.00 57 1011.8
20260902212240 92 240 1.0 10.0 0.00 0.00 0.00 57 1011.8
20260902212134 92 224 3.0 10.0 0.00 0.00 0.00 57 1011.8
20260902212029 92 202 6.0 10.0 0.00 0.00 0.00 57 1012.1
20260902211924 92 256 9.0 11.0 0.00 0.00 0.00 56 1012.1
20260902211857 92 244 6.0 11.0 0.00 0.00 0.00 56 1012.1
20260902211816 92 211 6.0 11.0 0.00 0.00 0.00 56 1012.1
20260902211712 92 152 4.0 11.0 0.00 0.00 0.00 56 1011.8
20260902211606 92 247 3.0 11.0 0.00 0.00 0.00 56 1012.1
20260902211512 92 238 2.0 11.0 0.00 0.00 0.00 56 1011.8
20260902211354 92 177 3.0 11.0 0.00 0.00 0.00 56 1011.8
20260902211249 92 281 5.0 11.0 0.00 0.00 0.00 55 1011.8
20260902211143 92 183 1.0 11.0 0.00 0.00 0.00 55 1011.8
20260902211037 92 268 3.0 11.0 0.00 0.00 0.00 55 1012.1
20260902210944 92 226 4.0 11.0 0.00 0.00 0.00 55 1011.8
20260902210843 92 97 3.0 11.0 0.00 0.00 0.00 55 1011.8
20260902210825 92 230 2.0 11.0 0.00 0.00 0.00 55 1011.8
20260902210720 93 261 8.0 11.0 0.00 0.00 0.00 55 1011.8
20260902210628 93 208 4.0 14.0 0.00 0.00 0.00 55 1011.8
20260902210510 93 227 5.0 18.0 0.00 0.00 0.00 55 1011.8
20260902210415 93 294 5.0 18.0 0.00 0.00 0.00 54 1011.8
20260902210336 93 75 7.0 18.0 0.00 0.00 0.00 54 1011.8
20260902210256 93 255 6.0 18.0 0.00 0.00 0.00 55 1011.8
20260902210151 93 219 5.0 18.0 0.00 0.00 0.00 54 1011.8
20260902210044 93 239 4.0 18.0 0.00 0.00 0.00 55 1011.8
20260902205939 93 272 3.0 18.0 0.00 0.00 0.00 54 1012.1
20260902205833 93 298 5.0 18.0 0.00 0.00 0.00 54 1011.8
20260902205727 93 117 3.0 18.0 0.00 0.00 0.00 54 1011.8
20260902205622 93 177 9.0 18.0 0.00 0.00 0.00 53 1011.8
20260902205556 93 219 2.0 10.0 0.00 0.00 0.00 55 1011.8
20260902205552 94 184 6.0 10.0 0.00 0.00 0.00 54 1011.8
20260902205544 94 186 4.0 10.0 0.00 0.00 0.00 54 1011.8
20260902205306 93 346 4.0 10.0 0.00 0.00 0.00 54 1011.8
20260902205158 93 177 0.0 9.0 0.00 0.00 0.00 55 1011.4
20260902205053 93 209 3.0 9.0 0.00 0.00 0.00 55 1011.8
20260902204947 93 216 4.0 9.0 0.00 0.00 0.00 54 1012.1
20260902204842 93 193 2.0 9.0 0.00 0.00 0.00 54 1011.8
20260902204815 93 46 1.0 9.0 0.00 0.00 0.00 54 1011.8
20260902204736 94 259 4.0 9.0 0.00 0.00 0.00 53 1011.8
20260902204629 94 177 4.0 7.0 0.00 0.00 0.00 53 1011.8
20260902204524 94 205 2.0 7.0 0.00 0.00 0.00 54 1012.1
20260902204419 94 323 3.0 7.0 0.00 0.00 0.00 54 1012.1
20260902204312 93 240 1.0 7.0 0.00 0.00 0.00 54 1011.8
20260902204207 93 231 4.0 7.0 0.00 0.00 0.00 54 1012.1
20260902204102 93 125 5.0 7.0 0.00 0.00 0.00 54 1011.8
20260902203955 94 217 5.0 10.0 0.00 0.00 0.00 54 1011.8
20260902203850 94 82 3.0 10.0 0.00 0.00 0.00 54 1011.8
20260902203801 94 292 3.0 10.0 0.00 0.00 0.00 54 1012.1
20260902203745 94 231 4.0 10.0 0.00 0.00 0.00 53 1012.1
20260902203638 94 205 2.0 10.0 0.00 0.00 0.00 54 1012.1
20260902203533 94 341 2.0 10.0 0.00 0.00 0.00 54 1012.1
20260902203427 94 209 3.0 10.0 0.00 0.00 0.00 54 1012.1
20260902203321 94 122 3.0 11.0 0.00 0.00 0.00 53 1012.1
20260902203255 95 148 3.0 11.0 0.00 0.00 0.00 53 1012.1
20260902203216 95 313 3.0 11.0 0.00 0.00 0.00 52 1012.1
20260902203110 95 227 4.0 11.0 0.00 0.00 0.00 53 1012.1
20260902203006 94 335 1.0 11.0 0.00 0.00 0.00 54 1012.1
20260902202859 94 335 1.0 11.0 0.00 0.00 0.00 54 1011.8
20260902202753 94 221 3.0 11.0 0.00 0.00 0.00 53 1011.8
20260902202646 94 241 4.0 11.0 0.00 0.00 0.00 53 1012.1
20260902202541 94 212 4.0 11.0 0.00 0.00 0.00 54 1012.1
20260902202436 94 292 8.0 11.0 0.00 0.00 0.00 53 1012.1
20260902202330 94 339 2.0 9.0 0.00 0.00 0.00 53 1012.1
20260902202242 94 239 5.0 9.0 0.00 0.00 0.00 53 1012.1
20260902202224 94 217 5.0 9.0 0.00 0.00 0.00 53 1012.1
20260902202118 94 193 4.0 9.0 0.00 0.00 0.00 54 1012.1
20260902202013 94 304 2.0 9.0 0.00 0.00 0.00 53 1012.1
20260902201908 94 154 3.0 9.0 0.00 0.00 0.00 53 1012.4
20260902201802 94 223 2.0 9.0 0.00 0.00 0.00 53 1012.4
20260902201735 94 290 3.0 9.0 0.00 0.00 0.00 53 1012.1
20260902201656 94 228 4.0 8.0 0.00 0.00 0.00 53 1012.1
20260902201550 95 224 4.0 8.0 0.00 0.00 0.00 52 1012.1
20260902201505 94 180 4.0 8.0 0.00 0.00 0.00 52 1012.1
20260902201455 95 215 4.0 8.0 0.00 0.00 0.00 51 1012.1
20260902201445 94 228 2.0 10.0 0.00 0.00 0.00 52 1012.1
20260902201140 94 218 6.0 10.0 0.00 0.00 0.00 51 1012.1
20260902201022 94 196 2.0 14.0 0.00 0.00 0.00 52 1012.4
20260902200929 94 264 4.0 14.0 0.00 0.00 0.00 51 1012.4
20260902200811 94 235 5.0 14.0 0.00 0.00 0.00 52 1012.4
20260902200721 94 143 0.0 14.0 0.00 0.00 0.00 52 1012.4
20260902200704 94 86 2.0 14.0 0.00 0.00 0.00 51 1012.4
20260902200559 94 259 4.0 14.0 0.00 0.00 0.00 50 1012.1
20260902200453 94 65 2.0 14.0 0.00 0.00 0.00 51 1012.4
20260902200347 94 233 6.0 14.0 0.00 0.00 0.00 50 1012.8
20260902200242 95 62 2.0 14.0 0.00 0.00 0.00 50 1012.4
20260902200215 95 200 6.0 14.0 0.00 0.00 0.00 50 1012.4
20260902200134 95 8 1.0 14.0 0.00 0.00 0.00 50 1012.4
20260902200028 95 253 9.0 14.0 0.00 0.00 0.00 50 1012.4
20260902195922 95 354 2.0 11.0 0.00 0.00 0.00 50 1012.4
20260902195817 94 169 5.0 11.0 0.00 0.00 0.00 51 1012.4
20260902195710 94 195 3.0 14.0 0.00 0.00 0.00 52 1012.4
20260902195605 94 230 5.0 14.0 0.00 0.00 0.00 51 1012.4
20260902195500 94 223 4.0 14.0 0.00 0.00 0.00 51 1012.4
20260902195354 94 141 2.0 14.0 0.00 0.00 0.00 50 1012.4
20260902195248 94 179 3.0 14.0 0.00 0.00 0.00 52 1012.4
20260902195200 93 137 0.0 14.0 0.00 0.00 0.00 53 1012.4
20260902195142 93 350 0.0 14.0 0.00 0.00 0.00 53 1012.4
20260902195037 93 233 4.0 14.0 0.00 0.00 0.00 53 1012.4
20260902194934 93 60 2.0 14.0 0.00 0.00 0.00 54 1012.4
20260902194925 93 157 3.0 13.0 0.00 0.00 0.00 52 1012.4
20260902194919 93 311 9.0 14.0 0.00 0.00 0.00 52 1012.4
20260902194910 93 130 2.0 13.0 0.00 0.00 0.00 52 1012.4
20260902194613 93 236 7.0 13.0 0.00 0.00 0.00 51 1012.4
20260902194510 93 122 5.0 13.0 0.00 0.00 0.00 51 1012.4
20260902194404 94 124 8.0 13.0 0.00 0.00 0.00 51 1012.4
20260902194258 94 215 2.0 11.0 0.00 0.00 0.00 51 1012.4
20260902194153 94 266 8.0 11.0 0.00 0.00 0.00 50 1012.4
20260902194046 94 164 3.0 8.0 0.00 0.00 0.00 52 1012.8
20260902193941 95 220 1.0 8.0 0.00 0.00 0.00 51 1012.4
20260902193835 95 201 2.0 8.0 0.00 0.00 0.00 50 1012.4
20260902193730 96 201 4.0 8.0 0.00 0.00 0.00 50 1012.4
20260902193642 96 212 5.0 7.0 0.00 0.00 0.00 50 1012.4
20260902193624 96 191 3.0 7.0 0.00 0.00 0.00 50 1012.8
20260902193519 96 181 4.0 9.0 0.00 0.00 0.00 50 1012.8
20260902193416 96 304 0.0 9.0 0.00 0.00 0.00 49 1012.4
20260902193407 95 140 0.0 11.0 0.00 0.00 0.00 48 1012.8
20260902193402 96 231 3.0 9.0 0.00 0.00 0.00 48 1012.4
20260902193353 96 242 2.0 11.0 0.00 0.00 0.00 49 1012.8
20260902193055 95 235 1.0 11.0 0.00 0.00 0.00 51 1012.8
20260902192952 95 39 1.0 11.0 0.00 0.00 0.00 50 1012.4
20260902192856 95 216 4.0 11.0 0.00 0.00 0.00 50 1012.8
20260902192738 95 202 2.0 11.0 0.00 0.00 0.00 50 1012.8
20260902192633 95 160 2.0 11.0 0.00 0.00 0.00 50 1012.8
20260902192526 95 169 4.0 11.0 0.00 0.00 0.00 50 1012.8
20260902192424 95 289 5.0 11.0 0.00 0.00 0.00 50 1012.8
20260902192315 95 204 6.0 11.0 0.00 0.00 0.00 51 1012.8
20260902192210 95 170 5.0 10.0 0.00 0.00 0.00 52 1012.4
20260902192121 95 220 6.0 10.0 0.00 0.00 0.00 52 1012.8
20260902192104 95 263 3.0 10.0 0.00 0.00 0.00 52 1012.8
20260902191958 95 217 4.0 10.0 0.00 0.00 0.00 51 1013.1
20260902191852 95 164 2.0 10.0 0.00 0.00 0.00 50 1012.8
20260902191746 95 215 0.0 11.0 0.00 0.00 0.00 51 1012.8
20260902191640 95 249 2.0 11.0 0.00 0.00 0.00 51 1012.8
20260902191614 95 356 4.0 13.0 0.00 0.00 0.00 52 1012.8
20260902191535 94 191 5.0 13.0 0.00 0.00 0.00 51 1012.8
20260902191442 94 223 4.0 13.0 0.00 0.00 0.00 52 1012.8
20260902191323 95 241 5.0 13.0 0.00 0.00 0.00 51 1012.8
20260902191218 95 251 3.0 13.0 0.00 0.00 0.00 52 1012.8
20260902191111 94 195 0.0 13.0 0.00 0.00 0.00 52 1013.1
20260902191006 94 243 1.0 13.0 0.00 0.00 0.00 52 1013.1
20260902190900 94 267 7.0 13.0 0.00 0.00 0.00 52 1013.1
20260902190835 95 195 6.0 9.0 0.00 0.00 0.00 52 1012.8
20260902190831 94 308 7.0 13.0 0.00 0.00 0.00 51 1012.8
20260902190823 95 169 9.0 13.0 0.00 0.00 0.00 52 1012.8
20260902190543 95 255 6.0 9.0 0.00 0.00 0.00 51 1012.8
20260902190438 95 215 2.0 11.0 0.00 0.00 0.00 52 1012.8
20260902190331 95 219 3.0 11.0 0.00 0.00 0.00 51 1013.1
20260902190323 95 203 4.0 11.0 0.00 0.00 0.00 52 1013.1
20260902190318 95 217 3.0 11.0 0.00 0.00 0.00 52 1013.1
20260902190310 95 212 2.0 11.0 0.00 0.00 0.00 51 1013.1
20260902190013 95 198 1.0 11.0 0.00 0.00 0.00 52 1012.8
20260902185907 95 254 3.0 11.0 0.00 0.00 0.00 52 1012.8
20260902185802 95 239 3.0 11.0 0.00 0.00 0.00 52 1012.8
20260902185656 95 216 1.0 11.0 0.00 0.00 0.00 52 1012.8
20260902185550 95 186 7.0 11.0 0.00 0.00 0.00 51 1012.8
20260902185445 95 218 1.0 11.0 0.00 0.00 0.00 53 1012.4
20260902185338 95 287 4.0 11.0 0.00 0.00 0.00 51 1013.1
20260902185309 95 277 4.0 11.0 0.00 0.00 0.00 52 1012.8
20260902185306 95 167 2.0 11.0 0.00 0.00 0.00 52 1013.1
20260902185256 94 313 2.0 11.0 0.00 0.00 0.00 52 1012.8
20260902185022 95 278 4.0 11.0 0.00 0.00 0.00 54 1012.8
20260902184915 95 154 4.0 11.0 0.00 0.00 0.00 53 1013.1
20260902184810 95 194 3.0 11.0 0.00 0.00 0.00 54 1012.8
20260902184704 94 183 3.0 8.0 0.00 0.00 0.00 55 1013.1
20260902184559 94 216 5.0 8.0 0.00 0.00 0.00 54 1013.1
20260902184533 94 191 6.0 8.0 0.00 0.00 0.00 53 1012.8
20260902184453 94 200 3.0 8.0 0.00 0.00 0.00 54 1012.8
20260902184347 95 284 4.0 10.0 0.00 0.00 0.00 53 1012.8
20260902184241 95 245 5.0 10.0 0.00 0.00 0.00 54 1012.8
20260902184136 95 236 2.0 11.0 0.00 0.00 0.00 54 1013.1
20260902184030 95 188 2.0 11.0 0.00 0.00 0.00 54 1012.8
20260902183925 94 196 1.0 11.0 0.00 0.00 0.00 54 1012.8
20260902183818 94 300 3.0 11.0 0.00 0.00 0.00 54 1012.8
20260902183713 93 248 2.0 11.0 0.00 0.00 0.00 54 1013.1
20260902183607 93 329 3.0 11.0 0.00 0.00 0.00 54 1013.1
20260902183519 93 232 4.0 11.0 0.00 0.00 0.00 56 1012.8
20260902183501 93 172 7.0 11.0 0.00 0.00 0.00 54 1012.8
20260902183356 93 238 2.0 11.0 0.00 0.00 0.00 55 1012.8
20260902183250 93 222 8.0 11.0 0.00 0.00 0.00 54 1012.8
20260902183144 93 208 8.0 10.0 0.00 0.00 0.00 54 1013.1
20260902183039 94 219 2.0 10.0 0.00 0.00 0.00 54 1012.8
20260902183012 94 175 1.0 10.0 0.00 0.00 0.00 53 1012.8
20260902182933 94 183 2.0 11.0 0.00 0.00 0.00 54 1013.1
20260902182828 94 284 4.0 11.0 0.00 0.00 0.00 56 1012.8
20260902182743 94 262 7.0 14.0 0.00 0.00 0.00 56 1012.8
20260902182734 94 181 1.0 14.0 0.00 0.00 0.00 55 1013.1
20260902182724 93 191 2.0 14.0 0.00 0.00 0.00 56 1012.8